Time,TemperatureF,DewpointF,PressureIn,WindDirection,WindDirectionDegrees,WindSpeedMPH,WindSpeedGustMPH,Humidity,HourlyPrecipIn,Conditions,Clouds,dailyrainin,SoftwareType,DateUTC
2013-04-30 00:01:00,58.8,53.6,29.96,SE,143,2.0,2.0,83,0.00,,,0.00,Wunderground v.1.15,2013-04-30 04:01:00,
2013-04-30 00:02:00,58.8,53.6,29.96,SE,141,1.0,2.0,83,0.00,,,0.00,Wunderground v.1.15,2013-04-30 04:02:00,
2013-04-30 00:03:00,58.8,53.6,29.96,SSE,163,1.0,2.0,83,0.00,,,0.00,Wunderground v.1.15,2013-04-30 04:03:00,
2013-04-30 00:05:00,58.8,53.6,29.96,SSE,160,1.0,2.0,83,0.00,,,0.00,Wunderground v.1.15,2013-04-30 04:05:00,
2013-04-30 00:07:00,58.8,53.6,29.96,SSE,162,1.0,2.0,83,0.00,,,0.00,Wunderground v.1.15,2013-04-30 04:07:00,
2013-04-30 00:08:00,58.8,53.6,29.96,SW,229,0.0,2.0,83,0.00,,,0.00,Wunderground v.1.15,2013-04-30 04:08:00,
2013-04-30 00:10:00,58.8,53.6,29.96,WSW,256,0.0,1.0,83,0.00,,,0.00,Wunderground v.1.15,2013-04-30 04:10:00,
2013-04-30 00:13:00,58.8,53.6,29.96,SSE,150,2.0,5.0,83,0.00,,,0.00,Wunderground v.1.15,2013-04-30 04:13:00,
2013-04-30 00:16:00,58.8,53.6,29.96,SSE,150,2.0,5.0,83,0.00,,,0.00,Wunderground v.1.15,2013-04-30 04:16:00,
2013-04-30 00:19:00,58.7,53.5,29.96,SW,222,0.0,5.0,83,0.00,,,0.00,Wunderground v.1.15,2013-04-30 04:19:00,
2013-04-30 00:21:00,58.6,53.5,29.96,South,184,0.0,2.0,83,0.00,,,0.00,Wunderground v.1.15,2013-04-30 04:21:00,
2013-04-30 00:22:00,58.6,53.5,29.96,SSW,193,0.0,2.0,83,0.00,,,0.00,Wunderground v.1.15,2013-04-30 04:22:00,
2013-04-30 00:23:00,58.6,53.5,29.96,SSW,208,0.0,2.0,83,0.00,,,0.00,Wunderground v.1.15,2013-04-30 04:23:00,
2013-04-30 00:25:00,58.5,53.4,29.96,SSW,203,0.0,2.0,83,0.00,,,0.00,Wunderground v.1.15,2013-04-30 04:25:00,
2013-04-30 00:26:00,58.4,53.3,29.96,SSW,208,0.0,2.0,83,0.00,,,0.00,Wunderground v.1.15,2013-04-30 04:26:00,
2013-04-30 00:28:00,58.4,53.3,29.96,SE,132,0.0,2.0,83,0.00,,,0.00,Wunderground v.1.15,2013-04-30 04:28:00,
2013-04-30 00:30:00,58.3,53.5,29.96,SW,236,0.0,0.0,84,0.00,,,0.00,Wunderground v.1.15,2013-04-30 04:30:00,
2013-04-30 00:31:00,58.2,53.4,29.96,SSE,162,0.0,0.0,84,0.00,,,0.00,Wunderground v.1.15,2013-04-30 04:31:00,
2013-04-30 00:35:00,58.1,53.3,29.96,SSW,201,0.0,0.0,84,0.00,,,0.00,Wunderground v.1.15,2013-04-30 04:35:00,
2013-04-30 00:36:00,58.0,53.2,29.96,SSW,201,0.0,0.0,84,0.00,,,0.00,Wunderground v.1.15,2013-04-30 04:36:00,
2013-04-30 00:37:00,58.0,53.2,29.96,SSW,202,0.0,0.0,84,0.00,,,0.00,Wunderground v.1.15,2013-04-30 04:37:00,
2013-04-30 00:40:00,57.8,53.0,29.96,South,173,0.0,0.0,84,0.00,,,0.00,Wunderground v.1.15,2013-04-30 04:40:00,
2013-04-30 00:42:00,57.7,53.2,29.96,South,173,0.0,0.0,85,0.00,,,0.00,Wunderground v.1.15,2013-04-30 04:42:00,
2013-04-30 00:43:00,57.7,53.2,29.96,South,173,0.0,0.0,85,0.00,,,0.00,Wunderground v.1.15,2013-04-30 04:43:00,
2013-04-30 00:47:00,57.5,53.0,29.96,South,173,0.0,0.0,85,0.00,,,0.00,Wunderground v.1.15,2013-04-30 04:47:00,
2013-04-30 00:48:00,57.5,53.0,29.96,South,173,0.0,0.0,85,0.00,,,0.00,Wunderground v.1.15,2013-04-30 04:48:00,
2013-04-30 00:52:00,57.3,52.8,29.96,South,174,0.0,0.0,85,0.00,,,0.00,Wunderground v.1.15,2013-04-30 04:52:00,
2013-04-30 00:53:00,57.2,52.7,29.96,South,173,0.0,0.0,85,0.00,,,0.00,Wunderground v.1.15,2013-04-30 04:53:00,
2013-04-30 00:54:00,57.2,53.0,29.96,SW,232,0.0,0.0,86,0.00,,,0.00,Wunderground v.1.15,2013-04-30 04:54:00,
2013-04-30 00:58:00,57.1,53.0,29.97,SW,233,0.0,0.0,86,0.00,,,0.00,Wunderground v.1.15,2013-04-30 04:58:00,
2013-04-30 01:00:00,57.1,53.0,29.97,SSW,195,0.0,0.0,86,0.00,,,0.00,Wunderground v.1.15,2013-04-30 05:00:00,
2013-04-30 01:01:00,57.1,53.0,29.97,SSW,197,0.0,0.0,86,0.00,,,0.00,Wunderground v.1.15,2013-04-30 05:01:00,
2013-04-30 01:02:00,57.0,52.9,29.97,SSW,196,0.0,0.0,86,0.00,,,0.00,Wunderground v.1.15,2013-04-30 05:02:00,
2013-04-30 01:04:00,57.0,52.9,29.97,South,188,2.0,2.0,86,0.00,,,0.00,Wunderground v.1.15,2013-04-30 05:04:00,
2013-04-30 01:05:00,57.0,52.9,29.97,SSE,163,0.0,2.0,86,0.00,,,0.00,Wunderground v.1.15,2013-04-30 05:05:00,
2013-04-30 01:07:00,57.0,53.2,29.97,SW,236,0.0,2.0,87,0.00,,,0.00,Wunderground v.1.15,2013-04-30 05:07:00,
2013-04-30 01:09:00,57.0,53.2,29.97,SW,236,0.0,2.0,87,0.00,,,0.00,Wunderground v.1.15,2013-04-30 05:09:00,
2013-04-30 01:10:00,57.0,53.2,29.97,SSE,167,1.0,1.0,87,0.00,,,0.00,Wunderground v.1.15,2013-04-30 05:10:00,
2013-04-30 01:11:00,57.0,53.2,29.97,WSW,255,0.0,1.0,87,0.00,,,0.00,Wunderground v.1.15,2013-04-30 05:11:00,
2013-04-30 01:12:00,57.0,53.2,29.97,WSW,255,0.0,1.0,87,0.00,,,0.00,Wunderground v.1.15,2013-04-30 05:12:00,
2013-04-30 01:13:00,57.0,53.2,29.97,WSW,255,0.0,1.0,87,0.00,,,0.00,Wunderground v.1.15,2013-04-30 05:13:00,
2013-04-30 01:15:00,57.0,53.2,29.97,South,174,0.0,1.0,87,0.00,,,0.00,Wunderground v.1.15,2013-04-30 05:15:00,
2013-04-30 01:17:00,56.9,53.1,29.97,SSE,155,0.0,1.0,87,0.00,,,0.00,Wunderground v.1.15,2013-04-30 05:17:00,
2013-04-30 01:18:00,56.9,53.1,29.97,WSW,241,0.0,1.0,87,0.00,,,0.00,Wunderground v.1.15,2013-04-30 05:18:00,
2013-04-30 01:19:00,56.9,53.1,29.97,WSW,241,0.0,1.0,87,0.00,,,0.00,Wunderground v.1.15,2013-04-30 05:19:00,
2013-04-30 01:24:00,56.9,53.1,29.97,WSW,239,0.0,0.0,87,0.00,,,0.00,Wunderground v.1.15,2013-04-30 05:24:00,
2013-04-30 01:25:00,56.9,53.1,29.97,WSW,242,0.0,0.0,87,0.00,,,0.00,Wunderground v.1.15,2013-04-30 05:25:00,
2013-04-30 01:26:00,57.0,53.2,29.97,WSW,244,0.0,0.0,87,0.00,,,0.00,Wunderground v.1.15,2013-04-30 05:26:00,
2013-04-30 01:27:00,57.0,53.2,29.97,SSE,167,0.0,0.0,87,0.00,,,0.00,Wunderground v.1.15,2013-04-30 05:27:00,
2013-04-30 01:28:00,56.9,53.1,29.97,West,264,0.0,0.0,87,0.00,,,0.00,Wunderground v.1.15,2013-04-30 05:28:00,
2013-04-30 01:30:00,56.9,53.1,29.97,WSW,243,0.0,0.0,87,0.00,,,0.00,Wunderground v.1.15,2013-04-30 05:30:00,
2013-04-30 01:32:00,56.9,53.1,29.97,WSW,243,0.0,0.0,87,0.00,,,0.00,Wunderground v.1.15,2013-04-30 05:32:00,
2013-04-30 01:33:00,56.9,53.1,29.97,WSW,243,0.0,0.0,87,0.00,,,0.00,Wunderground v.1.15,2013-04-30 05:33:00,
2013-04-30 01:34:00,56.9,53.1,29.97,WSW,243,0.0,0.0,87,0.00,,,0.00,Wunderground v.1.15,2013-04-30 05:34:00,
2013-04-30 01:38:00,56.9,53.1,29.98,WSW,243,0.0,0.0,87,0.00,,,0.00,Wunderground v.1.15,2013-04-30 05:38:00,
2013-04-30 01:39:00,56.8,53.0,29.98,WSW,246,0.0,0.0,87,0.00,,,0.00,Wunderground v.1.15,2013-04-30 05:39:00,
2013-04-30 01:41:00,56.8,53.0,29.98,SW,229,0.0,0.0,87,0.00,,,0.00,Wunderground v.1.15,2013-04-30 05:41:00,
2013-04-30 01:43:00,56.8,53.0,29.98,SW,229,0.0,0.0,87,0.00,,,0.00,Wunderground v.1.15,2013-04-30 05:43:00,
2013-04-30 01:44:00,56.8,53.0,29.98,SW,229,0.0,0.0,87,0.00,,,0.00,Wunderground v.1.15,2013-04-30 05:44:00,
2013-04-30 01:45:00,56.8,53.0,29.98,SW,229,0.0,0.0,87,0.00,,,0.00,Wunderground v.1.15,2013-04-30 05:45:00,
2013-04-30 01:48:00,56.7,52.9,29.98,SW,231,0.0,0.0,87,0.00,,,0.00,Wunderground v.1.15,2013-04-30 05:48:00,
2013-04-30 01:49:00,56.7,52.9,29.98,SW,231,0.0,0.0,87,0.00,,,0.00,Wunderground v.1.15,2013-04-30 05:49:00,
2013-04-30 01:52:00,56.6,53.1,29.98,SW,229,0.0,0.0,88,0.00,,,0.00,Wunderground v.1.15,2013-04-30 05:52:00,
2013-04-30 01:53:00,56.6,53.1,29.98,SW,229,0.0,0.0,88,0.00,,,0.00,Wunderground v.1.15,2013-04-30 05:53:00,
2013-04-30 01:54:00,56.6,53.1,29.98,SW,230,0.0,0.0,88,0.00,,,0.00,Wunderground v.1.15,2013-04-30 05:54:00,
2013-04-30 01:55:00,56.5,53.0,29.98,SW,231,0.0,0.0,88,0.00,,,0.00,Wunderground v.1.15,2013-04-30 05:55:00,
2013-04-30 01:58:00,56.5,53.0,29.98,SW,229,0.0,0.0,88,0.00,,,0.00,Wunderground v.1.15,2013-04-30 05:58:00,
2013-04-30 02:01:00,56.3,52.8,29.98,SW,231,0.0,0.0,88,0.00,,,0.00,Wunderground v.1.15,2013-04-30 06:01:00,
2013-04-30 02:03:00,56.3,52.8,29.98,SW,231,0.0,0.0,88,0.00,,,0.00,Wunderground v.1.15,2013-04-30 06:03:00,
2013-04-30 02:04:00,56.3,52.8,29.98,SW,229,0.0,0.0,88,0.00,,,0.00,Wunderground v.1.15,2013-04-30 06:04:00,
2013-04-30 02:06:00,56.2,52.7,29.97,SW,231,0.0,0.0,88,0.00,,,0.00,Wunderground v.1.15,2013-04-30 06:06:00,
2013-04-30 02:07:00,56.2,52.7,29.97,SW,229,0.0,0.0,88,0.00,,,0.00,Wunderground v.1.15,2013-04-30 06:07:00,
2013-04-30 02:08:00,56.2,52.7,29.98,SW,231,0.0,0.0,88,0.00,,,0.00,Wunderground v.1.15,2013-04-30 06:08:00,
2013-04-30 02:09:00,56.2,53.0,29.98,SW,231,0.0,0.0,89,0.00,,,0.00,Wunderground v.1.15,2013-04-30 06:09:00,
2013-04-30 02:11:00,56.1,52.9,29.98,SW,229,0.0,0.0,89,0.00,,,0.00,Wunderground v.1.15,2013-04-30 06:11:00,
2013-04-30 02:12:00,56.1,52.9,29.98,SW,229,0.0,0.0,89,0.00,,,0.00,Wunderground v.1.15,2013-04-30 06:12:00,
2013-04-30 02:13:00,56.1,52.9,29.98,SW,231,0.0,0.0,89,0.00,,,0.00,Wunderground v.1.15,2013-04-30 06:13:00,
2013-04-30 02:14:00,56.1,52.9,29.98,SW,229,0.0,0.0,89,0.00,,,0.00,Wunderground v.1.15,2013-04-30 06:14:00,
2013-04-30 02:16:00,56.0,52.8,29.98,SW,229,0.0,0.0,89,0.00,,,0.00,Wunderground v.1.15,2013-04-30 06:16:00,
2013-04-30 02:17:00,56.0,52.8,29.98,SW,231,0.0,0.0,89,0.00,,,0.00,Wunderground v.1.15,2013-04-30 06:17:00,
2013-04-30 02:18:00,56.0,52.8,29.98,SW,231,0.0,0.0,89,0.00,,,0.00,Wunderground v.1.15,2013-04-30 06:18:00,
2013-04-30 02:20:00,56.0,52.8,29.98,WSW,246,0.0,0.0,89,0.00,,,0.00,Wunderground v.1.15,2013-04-30 06:20:00,
2013-04-30 02:21:00,56.0,52.8,29.98,WSW,246,1.0,1.0,89,0.00,,,0.00,Wunderground v.1.15,2013-04-30 06:21:00,
2013-04-30 02:22:00,56.0,53.1,29.98,WSW,239,0.0,1.0,90,0.00,,,0.00,Wunderground v.1.15,2013-04-30 06:22:00,
2013-04-30 02:23:00,56.0,53.1,29.98,WSW,239,0.0,1.0,90,0.00,,,0.00,Wunderground v.1.15,2013-04-30 06:23:00,
2013-04-30 02:25:00,56.0,53.1,29.98,WSW,239,0.0,1.0,90,0.00,,,0.00,Wunderground v.1.15,2013-04-30 06:25:00,
2013-04-30 02:26:00,56.0,53.1,29.98,WSW,239,0.0,1.0,90,0.00,,,0.00,Wunderground v.1.15,2013-04-30 06:26:00,
2013-04-30 02:27:00,56.0,53.1,29.98,WSW,239,0.0,1.0,90,0.00,,,0.00,Wunderground v.1.15,2013-04-30 06:27:00,
2013-04-30 02:28:00,56.0,53.1,29.98,WSW,239,0.0,1.0,90,0.00,,,0.00,Wunderground v.1.15,2013-04-30 06:28:00,
2013-04-30 02:30:00,56.0,53.1,29.98,WSW,239,0.0,0.0,90,0.00,,,0.00,Wunderground v.1.15,2013-04-30 06:30:00,
2013-04-30 02:31:00,56.0,53.1,29.98,WSW,239,0.0,0.0,90,0.00,,,0.00,Wunderground v.1.15,2013-04-30 06:31:00,
2013-04-30 02:33:00,56.0,53.1,29.98,WSW,239,0.0,0.0,90,0.00,,,0.00,Wunderground v.1.15,2013-04-30 06:33:00,
2013-04-30 02:35:00,55.9,53.0,29.98,WSW,239,0.0,0.0,90,0.00,,,0.00,Wunderground v.1.15,2013-04-30 06:35:00,
2013-04-30 02:36:00,55.9,53.0,29.98,WSW,239,0.0,0.0,90,0.00,,,0.00,Wunderground v.1.15,2013-04-30 06:36:00,
2013-04-30 02:38:00,55.9,53.0,29.98,WSW,239,0.0,0.0,90,0.00,,,0.00,Wunderground v.1.15,2013-04-30 06:38:00,
2013-04-30 02:40:00,55.9,53.0,29.98,WSW,242,0.0,0.0,90,0.00,,,0.00,Wunderground v.1.15,2013-04-30 06:40:00,
2013-04-30 02:42:00,55.9,53.0,29.98,WSW,242,0.0,1.0,90,0.00,,,0.00,Wunderground v.1.15,2013-04-30 06:42:00,
2013-04-30 02:43:00,55.9,53.0,29.98,WSW,242,0.0,1.0,90,0.00,,,0.00,Wunderground v.1.15,2013-04-30 06:43:00,
2013-04-30 02:44:00,55.9,53.0,29.98,WSW,242,0.0,1.0,90,0.00,,,0.00,Wunderground v.1.15,2013-04-30 06:44:00,
2013-04-30 02:46:00,55.8,52.9,29.98,WSW,242,0.0,1.0,90,0.00,,,0.00,Wunderground v.1.15,2013-04-30 06:46:00,
2013-04-30 02:47:00,55.8,52.9,29.98,WSW,242,0.0,1.0,90,0.00,,,0.00,Wunderground v.1.15,2013-04-30 06:47:00,
2013-04-30 02:48:00,55.7,52.8,29.98,SE,139,0.0,1.0,90,0.00,,,0.00,Wunderground v.1.15,2013-04-30 06:48:00,
2013-04-30 02:49:00,55.7,52.8,29.98,SE,139,0.0,1.0,90,0.00,,,0.00,Wunderground v.1.15,2013-04-30 06:49:00,
2013-04-30 02:51:00,55.7,52.8,29.98,SE,139,0.0,0.0,90,0.00,,,0.00,Wunderground v.1.15,2013-04-30 06:51:00,
2013-04-30 02:52:00,55.7,52.8,29.98,SE,140,0.0,0.0,90,0.00,,,0.00,Wunderground v.1.15,2013-04-30 06:52:00,
2013-04-30 02:53:00,55.6,52.7,29.98,SE,140,0.0,1.0,90,0.00,,,0.00,Wunderground v.1.15,2013-04-30 06:53:00,
2013-04-30 02:54:00,55.6,52.7,29.98,SE,139,0.0,1.0,90,0.00,,,0.00,Wunderground v.1.15,2013-04-30 06:54:00,
2013-04-30 02:56:00,55.6,53.0,29.98,SE,146,0.0,1.0,91,0.00,,,0.00,Wunderground v.1.15,2013-04-30 06:56:00,
2013-04-30 02:57:00,55.6,52.7,29.98,SSE,153,0.0,1.0,90,0.00,,,0.00,Wunderground v.1.15,2013-04-30 06:57:00,
2013-04-30 02:59:00,55.5,52.9,29.97,SSE,153,0.0,1.0,91,0.00,,,0.00,Wunderground v.1.15,2013-04-30 06:59:00,
2013-04-30 03:01:00,55.5,52.9,29.97,SSE,152,0.0,0.0,91,0.00,,,0.00,Wunderground v.1.15,2013-04-30 07:01:00,
2013-04-30 03:02:00,55.5,52.9,29.97,SSE,152,0.0,0.0,91,0.00,,,0.00,Wunderground v.1.15,2013-04-30 07:02:00,
2013-04-30 03:04:00,55.5,52.9,29.97,SSE,152,0.0,0.0,91,0.00,,,0.00,Wunderground v.1.15,2013-04-30 07:04:00,
2013-04-30 03:06:00,55.5,52.9,29.98,SW,219,0.0,0.0,91,0.00,,,0.00,Wunderground v.1.15,2013-04-30 07:06:00,
2013-04-30 03:07:00,55.5,52.9,29.98,SW,219,0.0,0.0,91,0.00,,,0.00,Wunderground v.1.15,2013-04-30 07:07:00,
2013-04-30 03:09:00,55.5,52.9,29.98,SW,219,0.0,0.0,91,0.00,,,0.00,Wunderground v.1.15,2013-04-30 07:09:00,
2013-04-30 03:11:00,55.5,52.9,29.98,SW,218,0.0,0.0,91,0.00,,,0.00,Wunderground v.1.15,2013-04-30 07:11:00,
2013-04-30 03:12:00,55.5,52.9,29.98,SSW,211,0.0,0.0,91,0.00,,,0.00,Wunderground v.1.15,2013-04-30 07:12:00,
2013-04-30 03:14:00,55.5,52.9,29.98,SSW,211,0.0,0.0,91,0.00,,,0.00,Wunderground v.1.15,2013-04-30 07:14:00,
2013-04-30 03:15:00,55.5,52.9,29.98,SSW,212,0.0,0.0,91,0.00,,,0.00,Wunderground v.1.15,2013-04-30 07:15:00,
2013-04-30 03:16:00,55.5,52.9,29.98,SE,146,0.0,1.0,91,0.00,,,0.00,Wunderground v.1.15,2013-04-30 07:16:00,
2013-04-30 03:17:00,55.5,52.9,29.98,SE,146,0.0,1.0,91,0.00,,,0.00,Wunderground v.1.15,2013-04-30 07:17:00,
2013-04-30 03:19:00,55.5,52.9,29.98,SE,146,0.0,1.0,91,0.00,,,0.00,Wunderground v.1.15,2013-04-30 07:19:00,
2013-04-30 03:20:00,55.4,52.8,29.98,SE,146,0.0,0.0,91,0.00,,,0.00,Wunderground v.1.15,2013-04-30 07:20:00,
2013-04-30 03:21:00,55.5,52.9,29.98,SE,145,0.0,0.0,91,0.00,,,0.00,Wunderground v.1.15,2013-04-30 07:21:00,
2013-04-30 03:22:00,55.5,52.9,29.98,SE,145,0.0,1.0,91,0.00,,,0.00,Wunderground v.1.15,2013-04-30 07:22:00,
2013-04-30 03:24:00,55.5,52.9,29.98,SE,145,0.0,1.0,91,0.00,,,0.00,Wunderground v.1.15,2013-04-30 07:24:00,
2013-04-30 03:25:00,55.5,52.9,29.98,SE,145,0.0,1.0,91,0.00,,,0.00,Wunderground v.1.15,2013-04-30 07:25:00,
2013-04-30 03:26:00,55.5,52.9,29.98,SE,139,2.0,2.0,91,0.00,,,0.00,Wunderground v.1.15,2013-04-30 07:26:00,
2013-04-30 03:27:00,55.5,52.9,29.98,SSE,153,0.0,2.0,91,0.00,,,0.00,Wunderground v.1.15,2013-04-30 07:27:00,
2013-04-30 03:28:00,55.5,53.2,29.98,SSE,154,0.0,2.0,92,0.00,,,0.00,Wunderground v.1.15,2013-04-30 07:28:00,
2013-04-30 03:29:00,55.6,53.3,29.98,SSE,167,0.0,2.0,92,0.00,,,0.00,Wunderground v.1.15,2013-04-30 07:29:00,
2013-04-30 03:30:00,55.6,53.0,29.98,SSE,167,0.0,0.0,91,0.00,,,0.00,Wunderground v.1.15,2013-04-30 07:30:00,
2013-04-30 03:31:00,55.6,53.0,29.98,SSE,167,0.0,0.0,91,0.00,,,0.00,Wunderground v.1.15,2013-04-30 07:31:00,
2013-04-30 03:32:00,55.5,52.9,29.99,SSE,167,0.0,0.0,91,0.00,,,0.00,Wunderground v.1.15,2013-04-30 07:32:00,
2013-04-30 03:33:00,55.5,52.9,29.99,SSE,167,0.0,0.0,91,0.00,,,0.00,Wunderground v.1.15,2013-04-30 07:33:00,
2013-04-30 03:34:00,55.5,52.9,29.99,SSE,167,0.0,0.0,91,0.00,,,0.00,Wunderground v.1.15,2013-04-30 07:34:00,
2013-04-30 03:35:00,55.5,52.9,29.99,SSE,167,0.0,0.0,91,0.00,,,0.00,Wunderground v.1.15,2013-04-30 07:35:00,
2013-04-30 03:36:00,55.5,52.9,29.99,SSE,167,0.0,0.0,91,0.00,,,0.00,Wunderground v.1.15,2013-04-30 07:36:00,
2013-04-30 03:38:00,55.5,52.9,29.99,SSE,167,0.0,0.0,91,0.00,,,0.00,Wunderground v.1.15,2013-04-30 07:38:00,
2013-04-30 03:39:00,55.5,52.9,29.99,SSE,150,1.0,3.0,91,0.00,,,0.00,Wunderground v.1.15,2013-04-30 07:39:00,
2013-04-30 03:40:00,55.5,53.2,29.99,SSE,151,0.0,1.0,92,0.00,,,0.00,Wunderground v.1.15,2013-04-30 07:40:00,
2013-04-30 03:42:00,55.5,52.9,29.99,SSE,151,0.0,1.0,91,0.00,,,0.00,Wunderground v.1.15,2013-04-30 07:42:00,
2013-04-30 03:43:00,55.5,52.9,29.99,SSE,150,0.0,1.0,91,0.00,,,0.00,Wunderground v.1.15,2013-04-30 07:43:00,
2013-04-30 03:44:00,55.5,52.9,29.99,SSE,150,0.0,1.0,91,0.00,,,0.00,Wunderground v.1.15,2013-04-30 07:44:00,
2013-04-30 03:45:00,55.5,52.9,29.99,SSE,151,0.0,1.0,91,0.00,,,0.00,Wunderground v.1.15,2013-04-30 07:45:00,
2013-04-30 03:47:00,55.5,52.9,29.99,SSE,151,0.0,1.0,91,0.00,,,0.00,Wunderground v.1.15,2013-04-30 07:47:00,
2013-04-30 03:48:00,55.5,52.9,29.99,SSE,150,0.0,1.0,91,0.00,,,0.00,Wunderground v.1.15,2013-04-30 07:48:00,
2013-04-30 03:49:00,55.5,52.9,29.99,SSE,151,0.0,1.0,91,0.00,,,0.00,Wunderground v.1.15,2013-04-30 07:49:00,
2013-04-30 03:50:00,55.5,52.9,29.99,SSE,151,0.0,0.0,91,0.00,,,0.00,Wunderground v.1.15,2013-04-30 07:50:00,
2013-04-30 03:52:00,55.4,52.8,29.99,SSE,150,0.0,0.0,91,0.00,,,0.00,Wunderground v.1.15,2013-04-30 07:52:00,
2013-04-30 03:53:00,55.4,52.8,29.99,SSE,150,0.0,0.0,91,0.00,,,0.00,Wunderground v.1.15,2013-04-30 07:53:00,
2013-04-30 03:54:00,55.4,52.8,29.99,SSE,150,0.0,0.0,91,0.00,,,0.00,Wunderground v.1.15,2013-04-30 07:54:00,
2013-04-30 03:55:00,55.4,52.8,29.99,SSE,151,0.0,0.0,91,0.00,,,0.00,Wunderground v.1.15,2013-04-30 07:55:00,
2013-04-30 03:57:00,55.3,53.0,29.99,SSE,150,0.0,2.0,92,0.00,,,0.00,Wunderground v.1.15,2013-04-30 07:57:00,
2013-04-30 03:58:00,55.3,53.0,29.99,SSE,150,0.0,2.0,92,0.00,,,0.00,Wunderground v.1.15,2013-04-30 07:58:00,
2013-04-30 03:59:00,55.3,53.0,29.99,SSE,150,0.0,2.0,92,0.00,,,0.00,Wunderground v.1.15,2013-04-30 07:59:00,
2013-04-30 04:00:00,55.3,53.0,29.99,SSE,150,0.0,0.0,92,0.00,,,0.00,Wunderground v.1.15,2013-04-30 08:00:00,
2013-04-30 04:02:00,55.2,52.9,29.99,SSE,150,0.0,0.0,92,0.00,,,0.00,Wunderground v.1.15,2013-04-30 08:02:00,
2013-04-30 04:03:00,55.2,52.9,29.99,SSE,150,0.0,0.0,92,0.00,,,0.00,Wunderground v.1.15,2013-04-30 08:03:00,
2013-04-30 04:05:00,55.1,52.8,29.99,SSE,151,0.0,0.0,92,0.00,,,0.00,Wunderground v.1.15,2013-04-30 08:05:00,
2013-04-30 04:08:00,55.0,52.7,29.99,SSE,151,0.0,0.0,92,0.00,,,0.00,Wunderground v.1.15,2013-04-30 08:08:00,
2013-04-30 04:09:00,55.0,52.7,29.99,SSE,150,0.0,0.0,92,0.00,,,0.00,Wunderground v.1.15,2013-04-30 08:09:00,
2013-04-30 04:10:00,55.0,52.7,29.99,SSE,150,0.0,0.0,92,0.00,,,0.00,Wunderground v.1.15,2013-04-30 08:10:00,
2013-04-30 04:13:00,54.9,52.6,29.99,SSE,150,0.0,0.0,92,0.00,,,0.00,Wunderground v.1.15,2013-04-30 08:13:00,
2013-04-30 04:15:00,54.9,52.6,30.00,SSE,151,0.0,0.0,92,0.00,,,0.00,Wunderground v.1.15,2013-04-30 08:15:00,
2013-04-30 04:16:00,54.9,52.6,30.00,SE,136,0.0,1.0,92,0.00,,,0.00,Wunderground v.1.15,2013-04-30 08:16:00,
2013-04-30 04:18:00,54.9,52.6,30.00,SE,135,0.0,1.0,92,0.00,,,0.00,Wunderground v.1.15,2013-04-30 08:18:00,
2013-04-30 04:20:00,54.9,52.6,30.00,SE,136,0.0,0.0,92,0.00,,,0.00,Wunderground v.1.15,2013-04-30 08:20:00,
2013-04-30 04:21:00,54.9,52.6,30.00,SE,135,0.0,0.0,92,0.00,,,0.00,Wunderground v.1.15,2013-04-30 08:21:00,
2013-04-30 04:23:00,54.9,52.9,30.00,SE,135,0.0,0.0,93,0.00,,,0.00,Wunderground v.1.15,2013-04-30 08:23:00,
2013-04-30 04:26:00,54.9,52.6,30.00,SE,135,0.0,0.0,92,0.00,,,0.00,Wunderground v.1.15,2013-04-30 08:26:00,
2013-04-30 04:28:00,54.8,52.5,30.00,SE,135,0.0,1.0,92,0.00,,,0.00,Wunderground v.1.15,2013-04-30 08:28:00,
2013-04-30 04:29:00,54.8,52.5,30.00,SE,135,0.0,1.0,92,0.00,,,0.00,Wunderground v.1.15,2013-04-30 08:29:00,
2013-04-30 04:31:00,54.8,52.8,30.00,South,169,0.0,0.0,93,0.00,,,0.00,Wunderground v.1.15,2013-04-30 08:31:00,
2013-04-30 04:33:00,54.8,52.8,30.00,South,169,0.0,0.0,93,0.00,,,0.00,Wunderground v.1.15,2013-04-30 08:33:00,
2013-04-30 04:34:00,54.8,52.8,30.00,South,169,0.0,0.0,93,0.00,,,0.00,Wunderground v.1.15,2013-04-30 08:34:00,
2013-04-30 04:36:00,54.7,52.4,30.00,South,169,0.0,0.0,92,0.00,,,0.00,Wunderground v.1.15,2013-04-30 08:36:00,
2013-04-30 04:39:00,54.7,52.4,30.00,South,169,0.0,0.0,92,0.00,,,0.00,Wunderground v.1.15,2013-04-30 08:39:00,
2013-04-30 04:41:00,54.6,52.6,30.00,South,169,0.0,0.0,93,0.00,,,0.00,Wunderground v.1.15,2013-04-30 08:41:00,
2013-04-30 04:42:00,54.6,52.6,30.00,South,169,0.0,0.0,93,0.00,,,0.00,Wunderground v.1.15,2013-04-30 08:42:00,
2013-04-30 04:44:00,54.6,52.6,30.00,South,169,0.0,0.0,93,0.00,,,0.00,Wunderground v.1.15,2013-04-30 08:44:00,
2013-04-30 04:46:00,54.5,52.5,30.00,South,169,0.0,0.0,93,0.00,,,0.00,Wunderground v.1.15,2013-04-30 08:46:00,
2013-04-30 04:47:00,54.5,52.5,30.00,South,169,0.0,0.0,93,0.00,,,0.00,Wunderground v.1.15,2013-04-30 08:47:00,
2013-04-30 04:49:00,54.4,52.4,30.00,South,169,0.0,0.0,93,0.00,,,0.00,Wunderground v.1.15,2013-04-30 08:49:00,
2013-04-30 04:51:00,54.4,52.4,30.00,South,169,0.0,0.0,93,0.00,,,0.00,Wunderground v.1.15,2013-04-30 08:51:00,
2013-04-30 04:52:00,54.3,52.3,30.00,South,169,0.0,0.0,93,0.00,,,0.00,Wunderground v.1.15,2013-04-30 08:52:00,
2013-04-30 04:55:00,54.2,52.2,30.00,South,169,0.0,0.0,93,0.00,,,0.00,Wunderground v.1.15,2013-04-30 08:55:00,
2013-04-30 04:56:00,54.2,52.2,30.00,South,169,0.0,0.0,93,0.00,,,0.00,Wunderground v.1.15,2013-04-30 08:56:00,
2013-04-30 04:57:00,54.2,52.2,30.00,South,169,0.0,0.0,93,0.00,,,0.00,Wunderground v.1.15,2013-04-30 08:57:00,
2013-04-30 04:58:00,54.1,52.1,30.00,South,169,0.0,0.0,93,0.00,,,0.00,Wunderground v.1.15,2013-04-30 08:58:00,
2013-04-30 05:00:00,54.1,52.1,29.99,South,169,0.0,0.0,93,0.00,,,0.00,Wunderground v.1.15,2013-04-30 09:00:00,
2013-04-30 05:02:00,54.0,52.0,29.99,South,169,0.0,0.0,93,0.00,,,0.00,Wunderground v.1.15,2013-04-30 09:02:00,
2013-04-30 05:03:00,54.0,52.0,29.99,SSE,158,0.0,1.0,93,0.00,,,0.00,Wunderground v.1.15,2013-04-30 09:03:00,
2013-04-30 05:05:00,53.9,51.9,29.99,SSE,158,0.0,1.0,93,0.00,,,0.00,Wunderground v.1.15,2013-04-30 09:05:00,
2013-04-30 05:07:00,53.8,51.8,29.99,SSE,158,0.0,1.0,93,0.00,,,0.00,Wunderground v.1.15,2013-04-30 09:07:00,
2013-04-30 05:08:00,53.8,51.8,29.99,SSE,158,0.0,1.0,93,0.00,,,0.00,Wunderground v.1.15,2013-04-30 09:08:00,
2013-04-30 05:10:00,53.7,51.7,29.99,WSW,246,1.0,1.0,93,0.00,,,0.00,Wunderground v.1.15,2013-04-30 09:10:00,
2013-04-30 05:12:00,53.7,51.7,29.99,South,174,0.0,2.0,93,0.00,,,0.00,Wunderground v.1.15,2013-04-30 09:12:00,
2013-04-30 05:13:00,53.7,52.0,29.99,South,174,0.0,2.0,94,0.00,,,0.00,Wunderground v.1.15,2013-04-30 09:13:00,
2013-04-30 05:15:00,53.7,52.0,29.99,South,174,0.0,2.0,94,0.00,,,0.00,Wunderground v.1.15,2013-04-30 09:15:00,
2013-04-30 05:17:00,53.6,51.9,29.99,South,174,0.0,2.0,94,0.00,,,0.00,Wunderground v.1.15,2013-04-30 09:17:00,
2013-04-30 05:18:00,53.6,51.9,30.00,South,174,0.0,2.0,94,0.00,,,0.00,Wunderground v.1.15,2013-04-30 09:18:00,
2013-04-30 05:20:00,53.5,51.8,29.99,South,174,1.0,1.0,94,0.00,,,0.00,Wunderground v.1.15,2013-04-30 09:20:00,
2013-04-30 05:21:00,53.5,51.8,29.99,South,173,0.0,1.0,94,0.00,,,0.00,Wunderground v.1.15,2013-04-30 09:21:00,
2013-04-30 05:22:00,53.5,51.8,29.99,SSE,152,0.0,1.0,94,0.00,,,0.00,Wunderground v.1.15,2013-04-30 09:22:00,
2013-04-30 05:23:00,53.5,51.8,29.99,SSE,152,1.0,1.0,94,0.00,,,0.00,Wunderground v.1.15,2013-04-30 09:23:00,
2013-04-30 05:24:00,53.5,51.8,29.99,SSE,152,0.0,3.0,94,0.00,,,0.00,Wunderground v.1.15,2013-04-30 09:24:00,
2013-04-30 05:26:00,53.5,51.8,29.99,SSW,211,0.0,5.0,94,0.00,,,0.00,Wunderground v.1.15,2013-04-30 09:26:00,
2013-04-30 05:27:00,53.5,51.8,29.99,SSW,210,0.0,5.0,94,0.00,,,0.00,Wunderground v.1.15,2013-04-30 09:27:00,
2013-04-30 05:28:00,53.5,51.8,29.99,SSE,159,0.0,5.0,94,0.00,,,0.00,Wunderground v.1.15,2013-04-30 09:28:00,
2013-04-30 05:29:00,53.5,51.8,29.99,SSE,158,0.0,5.0,94,0.00,,,0.00,Wunderground v.1.15,2013-04-30 09:29:00,
2013-04-30 05:31:00,53.4,51.7,29.99,SE,144,0.0,1.0,94,0.00,,,0.00,Wunderground v.1.15,2013-04-30 09:31:00,
2013-04-30 05:33:00,53.4,51.7,29.99,SW,218,0.0,2.0,94,0.00,,,0.00,Wunderground v.1.15,2013-04-30 09:33:00,
2013-04-30 05:34:00,53.3,51.6,29.99,South,170,1.0,2.0,94,0.00,,,0.00,Wunderground v.1.15,2013-04-30 09:34:00,
2013-04-30 05:36:00,53.3,51.6,29.99,SSE,160,0.0,2.0,94,0.00,,,0.00,Wunderground v.1.15,2013-04-30 09:36:00,
2013-04-30 05:37:00,53.3,51.6,29.99,SSE,158,0.0,2.0,94,0.00,,,0.00,Wunderground v.1.15,2013-04-30 09:37:00,
2013-04-30 05:38:00,53.3,51.6,29.99,SE,141,1.0,2.0,94,0.00,,,0.00,Wunderground v.1.15,2013-04-30 09:38:00,
2013-04-30 05:39:00,53.3,51.6,29.99,SE,143,1.0,2.0,94,0.00,,,0.00,Wunderground v.1.15,2013-04-30 09:39:00,
2013-04-30 05:41:00,53.3,51.6,29.99,SE,141,0.0,1.0,94,0.00,,,0.00,Wunderground v.1.15,2013-04-30 09:41:00,
2013-04-30 05:42:00,53.3,51.6,29.99,South,169,1.0,2.0,94,0.00,,,0.00,Wunderground v.1.15,2013-04-30 09:42:00,
2013-04-30 05:43:00,53.3,51.6,29.99,SE,128,0.0,2.0,94,0.00,,,0.00,Wunderground v.1.15,2013-04-30 09:43:00,
2013-04-30 05:44:00,53.3,51.6,29.99,SE,129,0.0,2.0,94,0.00,,,0.00,Wunderground v.1.15,2013-04-30 09:44:00,
2013-04-30 05:45:00,53.2,51.5,29.99,South,177,0.0,2.0,94,0.00,,,0.00,Wunderground v.1.15,2013-04-30 09:45:00,
2013-04-30 05:46:00,53.3,51.9,29.99,SSE,158,0.0,2.0,95,0.00,,,0.00,Wunderground v.1.15,2013-04-30 09:46:00,
2013-04-30 05:47:00,53.3,51.9,29.99,SSE,158,0.0,2.0,95,0.00,,,0.00,Wunderground v.1.15,2013-04-30 09:47:00,
2013-04-30 05:48:00,53.3,51.9,29.99,SSE,158,0.0,2.0,95,0.00,,,0.00,Wunderground v.1.15,2013-04-30 09:48:00,
2013-04-30 05:49:00,53.2,51.8,29.99,SSE,158,0.0,2.0,95,0.00,,,0.00,Wunderground v.1.15,2013-04-30 09:49:00,
2013-04-30 05:50:00,53.2,51.8,29.99,SSE,160,1.0,1.0,95,0.00,,,0.00,Wunderground v.1.15,2013-04-30 09:50:00,
2013-04-30 05:52:00,53.3,51.9,29.99,SSE,162,0.0,1.0,95,0.00,,,0.00,Wunderground v.1.15,2013-04-30 09:52:00,
2013-04-30 05:53:00,53.3,51.9,29.99,SSE,162,0.0,1.0,95,0.00,,,0.00,Wunderground v.1.15,2013-04-30 09:53:00,
2013-04-30 05:54:00,53.3,51.9,29.99,SSE,162,0.0,1.0,95,0.00,,,0.00,Wunderground v.1.15,2013-04-30 09:54:00,
2013-04-30 05:55:00,53.3,51.9,29.99,SSE,151,1.0,1.0,95,0.00,,,0.00,Wunderground v.1.15,2013-04-30 09:55:00,
2013-04-30 05:57:00,53.3,51.9,29.99,SE,134,1.0,2.0,95,0.00,,,0.00,Wunderground v.1.15,2013-04-30 09:57:00,
2013-04-30 05:58:00,53.4,52.0,29.99,South,177,0.0,4.0,95,0.00,,,0.00,Wunderground v.1.15,2013-04-30 09:58:00,
2013-04-30 05:59:00,53.4,52.0,29.99,South,177,0.0,4.0,95,0.00,,,0.00,Wunderground v.1.15,2013-04-30 09:59:00,
2013-04-30 06:00:00,53.4,52.0,29.99,SSE,155,1.0,2.0,95,0.00,,,0.00,Wunderground v.1.15,2013-04-30 10:00:00,
2013-04-30 06:02:00,53.4,52.0,29.99,SSE,155,1.0,2.0,95,0.00,,,0.00,Wunderground v.1.15,2013-04-30 10:02:00,
2013-04-30 06:04:00,53.4,52.0,29.99,SSE,155,0.0,2.0,95,0.00,,,0.00,Wunderground v.1.15,2013-04-30 10:04:00,
2013-04-30 06:05:00,53.3,51.9,29.99,SSE,154,0.0,2.0,95,0.00,,,0.00,Wunderground v.1.15,2013-04-30 10:05:00,
2013-04-30 06:07:00,53.3,51.9,29.99,SSE,148,2.0,3.0,95,0.00,,,0.00,Wunderground v.1.15,2013-04-30 10:07:00,
2013-04-30 06:09:00,53.4,52.0,29.99,SE,139,0.0,3.0,95,0.00,,,0.00,Wunderground v.1.15,2013-04-30 10:09:00,
2013-04-30 06:10:00,53.4,52.0,29.99,SE,139,0.0,0.0,95,0.00,,,0.00,Wunderground v.1.15,2013-04-30 10:10:00,
2013-04-30 06:12:00,53.3,51.9,29.99,SSE,152,1.0,3.0,95,0.00,,,0.00,Wunderground v.1.15,2013-04-30 10:12:00,
2013-04-30 06:14:00,53.3,51.9,29.99,SSE,155,0.0,3.0,95,0.00,,,0.00,Wunderground v.1.15,2013-04-30 10:14:00,
2013-04-30 06:15:00,53.3,51.9,29.99,SSE,155,4.0,4.0,95,0.00,,,0.00,Wunderground v.1.15,2013-04-30 10:15:00,
2013-04-30 06:17:00,53.3,51.9,29.99,South,177,3.0,4.0,95,0.00,,,0.00,Wunderground v.1.15,2013-04-30 10:17:00,
2013-04-30 06:19:00,53.4,52.0,29.99,SSE,156,0.0,4.0,95,0.00,,,0.00,Wunderground v.1.15,2013-04-30 10:19:00,
2013-04-30 06:20:00,53.4,52.0,29.99,SW,215,0.0,1.0,95,0.00,,,0.00,Wunderground v.1.15,2013-04-30 10:20:00,
2013-04-30 06:21:00,53.4,52.0,29.99,SSW,199,0.0,1.0,95,0.00,,,0.00,Wunderground v.1.15,2013-04-30 10:21:00,
2013-04-30 06:22:00,53.4,52.0,29.99,SSE,160,1.0,3.0,95,0.00,,,0.00,Wunderground v.1.15,2013-04-30 10:22:00,
2013-04-30 06:24:00,53.4,52.0,29.98,SE,145,0.0,3.0,95,0.00,,,0.00,Wunderground v.1.15,2013-04-30 10:24:00,
2013-04-30 06:25:00,53.4,52.0,29.98,SSE,153,0.0,3.0,95,0.00,,,0.00,Wunderground v.1.15,2013-04-30 10:25:00,
2013-04-30 06:26:00,53.4,52.0,29.98,SW,229,1.0,3.0,95,0.00,,,0.00,Wunderground v.1.15,2013-04-30 10:26:00,
2013-04-30 06:27:00,53.4,52.0,29.98,South,173,0.0,3.0,95,0.00,,,0.00,Wunderground v.1.15,2013-04-30 10:27:00,
2013-04-30 06:30:00,53.4,52.0,29.98,WSW,243,0.0,1.0,95,0.00,,,0.00,Wunderground v.1.15,2013-04-30 10:30:00,
2013-04-30 06:31:00,53.4,52.0,29.98,WSW,243,0.0,1.0,95,0.00,,,0.00,Wunderground v.1.15,2013-04-30 10:31:00,
2013-04-30 06:32:00,53.4,52.0,29.98,WSW,243,0.0,1.0,95,0.00,,,0.00,Wunderground v.1.15,2013-04-30 10:32:00,
2013-04-30 06:35:00,53.3,51.9,29.99,SW,225,0.0,2.0,95,0.00,,,0.00,Wunderground v.1.15,2013-04-30 10:35:00,
2013-04-30 06:36:00,53.3,51.9,29.99,South,181,1.0,2.0,95,0.00,,,0.00,Wunderground v.1.15,2013-04-30 10:36:00,
2013-04-30 06:37:00,53.3,51.9,29.99,SW,229,1.0,2.0,95,0.00,,,0.00,Wunderground v.1.15,2013-04-30 10:37:00,
2013-04-30 06:40:00,53.4,52.0,29.99,SE,145,0.0,0.0,95,0.00,,,0.00,Wunderground v.1.15,2013-04-30 10:40:00,
2013-04-30 06:41:00,53.4,52.0,29.99,South,174,0.0,2.0,95,0.00,,,0.00,Wunderground v.1.15,2013-04-30 10:41:00,
2013-04-30 06:42:00,53.4,52.0,29.99,South,174,0.0,2.0,95,0.00,,,0.00,Wunderground v.1.15,2013-04-30 10:42:00,
2013-04-30 06:43:00,53.4,52.0,29.99,SW,228,0.0,3.0,95,0.00,,,0.00,Wunderground v.1.15,2013-04-30 10:43:00,
2013-04-30 06:45:00,53.4,52.0,29.99,SW,233,0.0,3.0,95,0.00,,,0.00,Wunderground v.1.15,2013-04-30 10:45:00,
2013-04-30 06:46:00,53.4,52.0,29.99,SW,233,0.0,3.0,95,0.00,,,0.00,Wunderground v.1.15,2013-04-30 10:46:00,
2013-04-30 06:47:00,53.4,52.0,29.99,SSE,160,0.0,3.0,95,0.00,,,0.00,Wunderground v.1.15,2013-04-30 10:47:00,
2013-04-30 06:48:00,53.4,52.0,29.99,SSE,160,1.0,3.0,95,0.00,,,0.00,Wunderground v.1.15,2013-04-30 10:48:00,
2013-04-30 06:50:00,53.4,52.0,29.99,SSE,159,1.0,3.0,95,0.00,,,0.00,Wunderground v.1.15,2013-04-30 10:50:00,
2013-04-30 06:51:00,53.4,52.0,29.99,SSE,152,1.0,3.0,95,0.00,,,0.00,Wunderground v.1.15,2013-04-30 10:51:00,
2013-04-30 06:52:00,53.4,52.0,29.99,SSE,163,5.0,5.0,95,0.00,,,0.00,Wunderground v.1.15,2013-04-30 10:52:00,
2013-04-30 06:53:00,53.5,52.4,29.99,SSE,160,0.0,5.0,96,0.00,,,0.00,Wunderground v.1.15,2013-04-30 10:53:00,
2013-04-30 06:55:00,53.5,52.4,29.99,West,276,0.0,5.0,96,0.00,,,0.00,Wunderground v.1.15,2013-04-30 10:55:00,
2013-04-30 06:56:00,53.6,52.2,29.99,West,259,0.0,5.0,95,0.00,,,0.00,Wunderground v.1.15,2013-04-30 10:56:00,
2013-04-30 06:57:00,53.5,52.1,29.99,WSW,258,0.0,5.0,95,0.00,,,0.00,Wunderground v.1.15,2013-04-30 10:57:00,
2013-04-30 06:58:00,53.6,52.2,29.99,SE,146,0.0,5.0,95,0.00,,,0.00,Wunderground v.1.15,2013-04-30 10:58:00,
2013-04-30 07:01:00,53.6,52.2,29.99,SW,218,0.0,2.0,95,0.00,,,0.00,Wunderground v.1.15,2013-04-30 11:01:00,
2013-04-30 07:02:00,53.6,52.2,29.99,SW,225,0.0,2.0,95,0.00,,,0.00,Wunderground v.1.15,2013-04-30 11:02:00,
2013-04-30 07:03:00,53.6,52.2,29.99,South,184,0.0,2.0,95,0.00,,,0.00,Wunderground v.1.15,2013-04-30 11:03:00,
2013-04-30 07:04:00,53.6,52.2,30.00,SW,214,0.0,2.0,95,0.00,,,0.00,Wunderground v.1.15,2013-04-30 11:04:00,
2013-04-30 07:06:00,53.6,52.2,30.00,SE,145,0.0,2.0,95,0.00,,,0.00,Wunderground v.1.15,2013-04-30 11:06:00,
2013-04-30 07:07:00,53.6,52.2,30.00,South,170,2.0,5.0,95,0.00,,,0.00,Wunderground v.1.15,2013-04-30 11:07:00,
2013-04-30 07:08:00,53.6,52.2,30.00,SW,224,2.0,5.0,95,0.00,,,0.00,Wunderground v.1.15,2013-04-30 11:08:00,
2013-04-30 07:09:00,53.6,52.2,30.00,SW,214,0.0,5.0,95,0.00,,,0.00,Wunderground v.1.15,2013-04-30 11:09:00,
2013-04-30 07:11:00,53.7,52.3,30.00,SSW,203,1.0,6.0,95,0.00,,,0.00,Wunderground v.1.15,2013-04-30 11:11:00,
2013-04-30 07:12:00,53.7,52.3,30.00,SSW,204,0.0,6.0,95,0.00,,,0.00,Wunderground v.1.15,2013-04-30 11:12:00,
2013-04-30 07:13:00,53.7,52.3,30.01,SSW,203,0.0,6.0,95,0.00,,,0.00,Wunderground v.1.15,2013-04-30 11:13:00,
2013-04-30 07:14:00,53.7,52.3,30.01,SW,236,0.0,6.0,95,0.00,,,0.00,Wunderground v.1.15,2013-04-30 11:14:00,
2013-04-30 07:16:00,53.8,52.4,30.01,WSW,246,1.0,6.0,95,0.00,,,0.00,Wunderground v.1.15,2013-04-30 11:16:00,
2013-04-30 07:17:00,53.8,52.4,30.01,SSW,202,1.0,6.0,95,0.00,,,0.00,Wunderground v.1.15,2013-04-30 11:17:00,
2013-04-30 07:18:00,53.8,52.4,30.01,SW,229,0.0,6.0,95,0.00,,,0.00,Wunderground v.1.15,2013-04-30 11:18:00,
2013-04-30 07:20:00,53.9,52.5,30.02,South,176,2.0,2.0,95,0.00,,,0.00,Wunderground v.1.15,2013-04-30 11:20:00,
2013-04-30 07:21:00,53.9,52.5,30.02,South,176,0.0,2.0,95,0.00,,,0.00,Wunderground v.1.15,2013-04-30 11:21:00,
2013-04-30 07:22:00,53.9,52.5,30.02,SW,236,0.0,3.0,95,0.00,,,0.00,Wunderground v.1.15,2013-04-30 11:22:00,
2013-04-30 07:23:00,54.0,52.6,30.02,South,170,0.0,3.0,95,0.00,,,0.00,Wunderground v.1.15,2013-04-30 11:23:00,
2013-04-30 07:25:00,54.1,52.7,30.02,West,273,0.0,3.0,95,0.00,,,0.00,Wunderground v.1.15,2013-04-30 11:25:00,
2013-04-30 07:26:00,54.1,52.7,30.02,SW,236,1.0,3.0,95,0.00,,,0.00,Wunderground v.1.15,2013-04-30 11:26:00,
2013-04-30 07:27:00,54.2,52.8,30.02,SW,236,0.0,3.0,95,0.00,,,0.00,Wunderground v.1.15,2013-04-30 11:27:00,
2013-04-30 07:28:00,54.2,52.8,30.02,SSE,168,5.0,5.0,95,0.00,,,0.00,Wunderground v.1.15,2013-04-30 11:28:00,
2013-04-30 07:29:00,54.2,52.8,30.02,SSE,159,2.0,5.0,95,0.00,,,0.00,Wunderground v.1.15,2013-04-30 11:29:00,
2013-04-30 07:30:00,54.3,52.9,30.02,SW,231,0.0,2.0,95,0.00,,,0.00,Wunderground v.1.15,2013-04-30 11:30:00,
2013-04-30 07:32:00,54.4,53.0,30.02,SSW,193,1.0,2.0,95,0.00,,,0.00,Wunderground v.1.15,2013-04-30 11:32:00,
2013-04-30 07:34:00,54.5,53.1,30.02,West,259,1.0,3.0,95,0.00,,,0.00,Wunderground v.1.15,2013-04-30 11:34:00,
2013-04-30 07:35:00,54.6,53.2,30.02,WSW,246,1.0,3.0,95,0.00,,,0.00,Wunderground v.1.15,2013-04-30 11:35:00,
2013-04-30 07:37:00,54.7,53.0,30.02,SW,218,2.0,3.0,94,0.00,,,0.00,Wunderground v.1.15,2013-04-30 11:37:00,
2013-04-30 07:39:00,54.8,53.1,30.02,WSW,252,1.0,5.0,94,0.00,,,0.00,Wunderground v.1.15,2013-04-30 11:39:00,
2013-04-30 07:41:00,54.8,53.1,30.02,SSE,156,1.0,2.0,94,0.00,,,0.00,Wunderground v.1.15,2013-04-30 11:41:00,
2013-04-30 07:42:00,54.9,53.2,30.02,SSW,198,0.0,2.0,94,0.00,,,0.00,Wunderground v.1.15,2013-04-30 11:42:00,
2013-04-30 07:43:00,54.9,53.2,30.02,SW,232,0.0,2.0,94,0.00,,,0.00,Wunderground v.1.15,2013-04-30 11:43:00,
2013-04-30 07:44:00,54.9,53.2,30.02,SE,128,1.0,2.0,94,0.00,,,0.00,Wunderground v.1.15,2013-04-30 11:44:00,
2013-04-30 07:46:00,55.0,53.0,30.02,SW,225,0.0,4.0,93,0.00,,,0.00,Wunderground v.1.15,2013-04-30 11:46:00,
2013-04-30 07:47:00,54.9,52.9,30.02,SE,141,1.0,4.0,93,0.00,,,0.00,Wunderground v.1.15,2013-04-30 11:47:00,
2013-04-30 07:48:00,54.9,52.9,30.02,SSW,195,1.0,4.0,93,0.00,,,0.00,Wunderground v.1.15,2013-04-30 11:48:00,
2013-04-30 07:49:00,55.0,53.0,30.02,SW,232,0.0,4.0,93,0.00,,,0.00,Wunderground v.1.15,2013-04-30 11:49:00,
2013-04-30 07:51:00,55.0,53.0,30.02,West,259,0.0,1.0,93,0.00,,,0.00,Wunderground v.1.15,2013-04-30 11:51:00,
2013-04-30 07:52:00,55.1,53.1,30.02,WSW,255,1.0,2.0,93,0.00,,,0.00,Wunderground v.1.15,2013-04-30 11:52:00,
2013-04-30 07:53:00,55.0,53.0,30.02,South,185,1.0,4.0,93,0.00,,,0.00,Wunderground v.1.15,2013-04-30 11:53:00,
2013-04-30 07:54:00,55.1,53.1,30.02,SSW,193,0.0,4.0,93,0.00,,,0.00,Wunderground v.1.15,2013-04-30 11:54:00,
2013-04-30 07:55:00,55.1,53.1,30.02,SW,235,1.0,4.0,93,0.00,,,0.00,Wunderground v.1.15,2013-04-30 11:55:00,
2013-04-30 07:56:00,55.2,53.2,30.02,West,259,1.0,5.0,93,0.00,,,0.00,Wunderground v.1.15,2013-04-30 11:56:00,
2013-04-30 07:57:00,55.3,53.3,30.02,WNW,301,3.0,5.0,93,0.00,,,0.00,Wunderground v.1.15,2013-04-30 11:57:00,
2013-04-30 07:58:00,55.3,53.3,30.02,South,174,2.0,8.0,93,0.00,,,0.00,Wunderground v.1.15,2013-04-30 11:58:00,
2013-04-30 07:59:00,55.4,53.4,30.02,WSW,241,1.0,8.0,93,0.00,,,0.00,Wunderground v.1.15,2013-04-30 11:59:00,
2013-04-30 08:00:00,55.4,53.1,30.02,WSW,241,0.0,1.0,92,0.00,,,0.00,Wunderground v.1.15,2013-04-30 12:00:00,
2013-04-30 08:01:00,55.5,53.2,30.02,ESE,106,1.0,6.0,92,0.00,,,0.00,Wunderground v.1.15,2013-04-30 12:01:00,
2013-04-30 08:02:00,55.6,53.3,30.02,SSE,162,0.0,6.0,92,0.00,,,0.00,Wunderground v.1.15,2013-04-30 12:02:00,
2013-04-30 08:03:00,55.6,53.3,30.02,WSW,249,2.0,6.0,92,0.00,,,0.00,Wunderground v.1.15,2013-04-30 12:03:00,
2013-04-30 08:04:00,55.7,53.4,30.02,SW,224,1.0,6.0,92,0.00,,,0.00,Wunderground v.1.15,2013-04-30 12:04:00,
2013-04-30 08:05:00,55.8,53.5,30.02,West,264,0.0,6.0,92,0.00,,,0.00,Wunderground v.1.15,2013-04-30 12:05:00,
2013-04-30 08:07:00,55.8,53.5,30.02,SSW,196,1.0,6.0,92,0.00,,,0.00,Wunderground v.1.15,2013-04-30 12:07:00,
2013-04-30 08:09:00,55.9,53.3,30.02,WNW,297,2.0,6.0,91,0.00,,,0.00,Wunderground v.1.15,2013-04-30 12:09:00,
2013-04-30 08:10:00,56.1,53.5,30.02,WSW,258,1.0,4.0,91,0.00,,,0.00,Wunderground v.1.15,2013-04-30 12:10:00,
2013-04-30 08:12:00,56.2,53.6,30.02,WSW,246,2.0,4.0,91,0.00,,,0.00,Wunderground v.1.15,2013-04-30 12:12:00,
2013-04-30 08:14:00,56.4,53.8,30.02,WSW,249,0.0,4.0,91,0.00,,,0.00,Wunderground v.1.15,2013-04-30 12:14:00,
2013-04-30 08:15:00,56.4,53.8,30.02,WSW,249,0.0,4.0,91,0.00,,,0.00,Wunderground v.1.15,2013-04-30 12:15:00,
2013-04-30 08:17:00,56.6,53.7,30.02,West,263,1.0,7.0,90,0.00,,,0.00,Wunderground v.1.15,2013-04-30 12:17:00,
2013-04-30 08:18:00,56.6,53.7,30.02,West,259,1.0,7.0,90,0.00,,,0.00,Wunderground v.1.15,2013-04-30 12:18:00,
2013-04-30 08:19:00,56.8,53.9,30.03,South,186,4.0,7.0,90,0.00,,,0.00,Wunderground v.1.15,2013-04-30 12:19:00,
2013-04-30 08:20:00,56.8,53.6,30.03,SW,228,1.0,2.0,89,0.00,,,0.00,Wunderground v.1.15,2013-04-30 12:20:00,
2013-04-30 08:21:00,56.9,53.7,30.03,SSW,208,0.0,4.0,89,0.00,,,0.00,Wunderground v.1.15,2013-04-30 12:21:00,
2013-04-30 08:23:00,57.0,53.8,30.03,South,173,1.0,5.0,89,0.00,,,0.00,Wunderground v.1.15,2013-04-30 12:23:00,
2013-04-30 08:24:00,57.1,53.9,30.03,SSW,204,2.0,5.0,89,0.00,,,0.00,Wunderground v.1.15,2013-04-30 12:24:00,
2013-04-30 08:25:00,57.2,53.7,30.03,SSW,200,0.0,5.0,88,0.00,,,0.00,Wunderground v.1.15,2013-04-30 12:25:00,
2013-04-30 08:26:00,57.3,53.8,30.03,SW,226,1.0,5.0,88,0.00,,,0.00,Wunderground v.1.15,2013-04-30 12:26:00,
2013-04-30 08:28:00,57.4,53.9,30.03,WSW,252,2.0,5.0,88,0.00,,,0.00,Wunderground v.1.15,2013-04-30 12:28:00,
2013-04-30 08:29:00,57.5,54.0,30.03,West,271,1.0,5.0,88,0.00,,,0.00,Wunderground v.1.15,2013-04-30 12:29:00,
2013-04-30 08:30:00,57.6,54.1,30.03,WSW,250,2.0,2.0,88,0.00,,,0.00,Wunderground v.1.15,2013-04-30 12:30:00,
2013-04-30 08:31:00,57.7,54.2,30.03,West,262,1.0,3.0,88,0.00,,,0.00,Wunderground v.1.15,2013-04-30 12:31:00,
2013-04-30 08:33:00,57.9,54.1,30.04,WSW,246,1.0,3.0,87,0.00,,,0.00,Wunderground v.1.15,2013-04-30 12:33:00,
2013-04-30 08:34:00,57.9,54.1,30.04,SW,233,2.0,3.0,87,0.00,,,0.00,Wunderground v.1.15,2013-04-30 12:34:00,
2013-04-30 08:35:00,58.0,54.2,30.04,WSW,243,5.0,5.0,87,0.00,,,0.00,Wunderground v.1.15,2013-04-30 12:35:00,
2013-04-30 08:36:00,58.1,54.2,30.04,WSW,242,4.0,5.0,87,0.00,,,0.00,Wunderground v.1.15,2013-04-30 12:36:00,
2013-04-30 08:39:00,58.4,54.2,30.04,WNW,289,1.0,6.0,86,0.00,,,0.00,Wunderground v.1.15,2013-04-30 12:39:00,
2013-04-30 08:40:00,58.4,54.2,30.04,WNW,286,1.0,6.0,86,0.00,,,0.00,Wunderground v.1.15,2013-04-30 12:40:00,
2013-04-30 08:41:00,58.5,54.3,30.04,SSE,151,3.0,6.0,86,0.00,,,0.00,Wunderground v.1.15,2013-04-30 12:41:00,
2013-04-30 08:44:00,58.7,54.2,30.04,SE,136,1.0,6.0,85,0.00,,,0.00,Wunderground v.1.15,2013-04-30 12:44:00,
2013-04-30 08:45:00,58.7,54.2,30.04,SW,224,0.0,6.0,85,0.00,,,0.00,Wunderground v.1.15,2013-04-30 12:45:00,
2013-04-30 08:46:00,58.7,54.2,30.04,WSW,249,2.0,10.0,85,0.00,,,0.00,Wunderground v.1.15,2013-04-30 12:46:00,
2013-04-30 08:49:00,58.7,53.9,30.04,SW,217,1.0,10.0,84,0.00,,,0.00,Wunderground v.1.15,2013-04-30 12:49:00,
2013-04-30 08:50:00,58.7,53.9,30.04,SW,233,1.0,2.0,84,0.00,,,0.00,Wunderground v.1.15,2013-04-30 12:50:00,
2013-04-30 08:51:00,58.7,53.9,30.05,SW,229,6.0,8.0,84,0.00,,,0.00,Wunderground v.1.15,2013-04-30 12:51:00,
2013-04-30 08:54:00,58.8,54.0,30.06,West,262,3.0,8.0,84,0.00,,,0.00,Wunderground v.1.15,2013-04-30 12:54:00,
2013-04-30 08:55:00,58.8,54.0,30.06,SE,145,2.0,8.0,84,0.00,,,0.00,Wunderground v.1.15,2013-04-30 12:55:00,
2013-04-30 08:56:00,58.9,54.1,30.06,WSW,249,4.0,8.0,84,0.00,,,0.00,Wunderground v.1.15,2013-04-30 12:56:00,
2013-04-30 08:59:00,59.0,53.8,30.06,WSW,242,4.0,8.0,83,0.00,,,0.00,Wunderground v.1.15,2013-04-30 12:59:00,
2013-04-30 09:00:00,59.1,53.9,30.05,SW,231,2.0,5.0,83,0.00,,,0.00,Wunderground v.1.15,2013-04-30 13:00:00,
2013-04-30 09:01:00,59.1,53.9,30.05,West,260,3.0,5.0,83,0.00,,,0.00,Wunderground v.1.15,2013-04-30 13:01:00,
2013-04-30 09:02:00,59.1,53.9,30.05,SSW,208,1.0,8.0,83,0.00,,,0.00,Wunderground v.1.15,2013-04-30 13:02:00,
2013-04-30 09:04:00,59.2,54.0,30.06,WSW,257,4.0,8.0,83,0.00,,,0.00,Wunderground v.1.15,2013-04-30 13:04:00,
2013-04-30 09:06:00,59.3,54.1,30.06,SE,145,1.0,8.0,83,0.00,,,0.00,Wunderground v.1.15,2013-04-30 13:06:00,
2013-04-30 09:07:00,59.3,54.1,30.06,West,259,3.0,8.0,83,0.00,,,0.00,Wunderground v.1.15,2013-04-30 13:07:00,
2013-04-30 09:10:00,59.5,54.3,30.06,WSW,246,1.0,3.0,83,0.00,,,0.00,Wunderground v.1.15,2013-04-30 13:10:00,
2013-04-30 09:11:00,59.6,54.4,30.06,WSW,243,2.0,3.0,83,0.00,,,0.00,Wunderground v.1.15,2013-04-30 13:11:00,
2013-04-30 09:12:00,59.7,54.2,30.07,ESE,108,0.0,4.0,82,0.00,,,0.00,Wunderground v.1.15,2013-04-30 13:12:00,
2013-04-30 09:15:00,59.8,54.3,30.06,SW,232,4.0,4.0,82,0.00,,,0.00,Wunderground v.1.15,2013-04-30 13:15:00,
2013-04-30 09:16:00,59.9,54.1,30.07,SW,235,2.0,5.0,81,0.00,,,0.00,Wunderground v.1.15,2013-04-30 13:16:00,
2013-04-30 09:17:00,59.8,54.0,30.07,SW,236,1.0,5.0,81,0.00,,,0.00,Wunderground v.1.15,2013-04-30 13:17:00,
2013-04-30 09:20:00,59.9,54.1,30.07,WSW,255,3.0,4.0,81,0.00,,,0.00,Wunderground v.1.15,2013-04-30 13:20:00,
2013-04-30 09:22:00,59.9,54.1,30.07,SW,236,3.0,7.0,81,0.00,,,0.00,Wunderground v.1.15,2013-04-30 13:22:00,
2013-04-30 09:25:00,59.9,54.1,30.07,WSW,245,5.0,7.0,81,0.00,,,0.00,Wunderground v.1.15,2013-04-30 13:25:00,
2013-04-30 09:27:00,60.0,53.8,30.07,WSW,256,0.0,7.0,80,0.00,,,0.00,Wunderground v.1.15,2013-04-30 13:27:00,
2013-04-30 09:30:00,60.2,54.3,30.07,WSW,239,0.0,2.0,81,0.00,,,0.00,Wunderground v.1.15,2013-04-30 13:30:00,
2013-04-30 09:32:00,60.4,54.5,30.07,West,262,0.0,2.0,81,0.00,,,0.00,Wunderground v.1.15,2013-04-30 13:32:00,
2013-04-30 09:33:00,60.5,54.6,30.07,SSE,164,0.0,2.0,81,0.00,,,0.00,Wunderground v.1.15,2013-04-30 13:33:00,
2013-04-30 09:35:00,60.6,54.4,30.07,SW,226,0.0,4.0,80,0.00,,,0.00,Wunderground v.1.15,2013-04-30 13:35:00,
2013-04-30 09:37:00,60.7,54.5,30.07,SSE,159,1.0,4.0,80,0.00,,,0.00,Wunderground v.1.15,2013-04-30 13:37:00,
2013-04-30 09:38:00,60.7,54.5,30.07,WSW,239,1.0,4.0,80,0.00,,,0.00,Wunderground v.1.15,2013-04-30 13:38:00,
2013-04-30 09:40:00,60.9,54.7,30.07,West,262,4.0,4.0,80,0.00,,,0.00,Wunderground v.1.15,2013-04-30 13:40:00,
2013-04-30 09:42:00,61.0,54.4,30.07,SSW,203,2.0,5.0,79,0.00,,,0.00,Wunderground v.1.15,2013-04-30 13:42:00,
2013-04-30 09:43:00,61.0,54.4,30.07,WSW,239,3.0,5.0,79,0.00,,,0.00,Wunderground v.1.15,2013-04-30 13:43:00,
2013-04-30 09:45:00,61.1,54.5,30.06,West,271,1.0,5.0,79,0.00,,,0.00,Wunderground v.1.15,2013-04-30 13:45:00,
2013-04-30 09:47:00,61.2,54.3,30.06,SW,232,1.0,5.0,78,0.00,,,0.00,Wunderground v.1.15,2013-04-30 13:47:00,
2013-04-30 09:48:00,61.2,54.3,30.06,SW,232,0.0,5.0,78,0.00,,,0.00,Wunderground v.1.15,2013-04-30 13:48:00,
2013-04-30 09:51:00,61.5,54.6,30.07,ESE,121,0.0,2.0,78,0.00,,,0.00,Wunderground v.1.15,2013-04-30 13:51:00,
2013-04-30 09:52:00,61.7,54.8,30.06,SW,219,2.0,4.0,78,0.00,,,0.00,Wunderground v.1.15,2013-04-30 13:52:00,
2013-04-30 09:53:00,61.7,54.8,30.06,SSE,148,1.0,4.0,78,0.00,,,0.00,Wunderground v.1.15,2013-04-30 13:53:00,
2013-04-30 09:56:00,62.0,54.7,30.06,SW,225,1.0,4.0,77,0.00,,,0.00,Wunderground v.1.15,2013-04-30 13:56:00,
2013-04-30 09:58:00,62.2,54.9,30.06,North,5,1.0,5.0,77,0.00,,,0.00,Wunderground v.1.15,2013-04-30 13:58:00,
2013-04-30 09:59:00,62.3,55.0,30.06,South,180,0.0,5.0,77,0.00,,,0.00,Wunderground v.1.15,2013-04-30 13:59:00,
2013-04-30 10:02:00,62.4,54.4,30.05,South,173,4.0,5.0,75,0.00,,,0.00,Wunderground v.1.15,2013-04-30 14:02:00,
2013-04-30 10:03:00,62.4,54.4,30.05,West,265,1.0,5.0,75,0.00,,,0.00,Wunderground v.1.15,2013-04-30 14:03:00,
2013-04-30 10:04:00,62.4,54.4,30.05,SW,229,2.0,6.0,75,0.00,,,0.00,Wunderground v.1.15,2013-04-30 14:04:00,
2013-04-30 10:07:00,62.2,54.2,30.05,WSW,242,2.0,6.0,75,0.00,,,0.00,Wunderground v.1.15,2013-04-30 14:07:00,
2013-04-30 10:08:00,62.2,54.2,30.05,South,172,3.0,6.0,75,0.00,,,0.00,Wunderground v.1.15,2013-04-30 14:08:00,
2013-04-30 10:09:00,62.1,54.1,30.05,WSW,249,2.0,6.0,75,0.00,,,0.00,Wunderground v.1.15,2013-04-30 14:09:00,
2013-04-30 10:10:00,62.1,54.1,30.05,SSW,211,1.0,2.0,75,0.00,,,0.00,Wunderground v.1.15,2013-04-30 14:10:00,
2013-04-30 10:12:00,62.0,54.0,30.05,South,174,1.0,6.0,75,0.00,,,0.00,Wunderground v.1.15,2013-04-30 14:12:00,
2013-04-30 10:13:00,62.0,54.0,30.05,SSE,155,0.0,6.0,75,0.00,,,0.00,Wunderground v.1.15,2013-04-30 14:13:00,
2013-04-30 10:14:00,61.9,53.9,30.06,SSE,162,1.0,6.0,75,0.00,,,0.00,Wunderground v.1.15,2013-04-30 14:14:00,
2013-04-30 10:15:00,61.9,53.9,30.05,South,191,0.0,6.0,75,0.00,,,0.00,Wunderground v.1.15,2013-04-30 14:15:00,
2013-04-30 10:17:00,61.8,54.2,30.05,SSW,211,2.0,6.0,76,0.00,,,0.00,Wunderground v.1.15,2013-04-30 14:17:00,
2013-04-30 10:18:00,61.8,54.2,30.05,SW,218,1.0,6.0,76,0.00,,,0.00,Wunderground v.1.15,2013-04-30 14:18:00,
2013-04-30 10:19:00,61.8,53.8,30.06,SSW,212,1.0,6.0,75,0.00,,,0.00,Wunderground v.1.15,2013-04-30 14:19:00,
2013-04-30 10:20:00,61.8,53.8,30.06,SW,226,3.0,3.0,75,0.00,,,0.00,Wunderground v.1.15,2013-04-30 14:20:00,
2013-04-30 10:22:00,61.7,53.7,30.06,WSW,239,3.0,5.0,75,0.00,,,0.00,Wunderground v.1.15,2013-04-30 14:22:00,
2013-04-30 10:23:00,61.7,53.7,30.06,WNW,294,0.0,5.0,75,0.00,,,0.00,Wunderground v.1.15,2013-04-30 14:23:00,
2013-04-30 10:24:00,61.7,54.1,30.06,SW,215,1.0,5.0,76,0.00,,,0.00,Wunderground v.1.15,2013-04-30 14:24:00,
2013-04-30 10:25:00,61.7,54.1,30.06,SW,221,2.0,5.0,76,0.00,,,0.00,Wunderground v.1.15,2013-04-30 14:25:00,
2013-04-30 10:28:00,61.6,54.0,30.06,SW,233,0.0,5.0,76,0.00,,,0.00,Wunderground v.1.15,2013-04-30 14:28:00,
2013-04-30 10:29:00,61.6,54.0,30.06,SSW,211,2.0,5.0,76,0.00,,,0.00,Wunderground v.1.15,2013-04-30 14:29:00,
2013-04-30 10:30:00,61.6,54.0,30.06,WSW,246,0.0,3.0,76,0.00,,,0.00,Wunderground v.1.15,2013-04-30 14:30:00,
2013-04-30 10:31:00,61.6,54.0,30.06,WSW,245,0.0,3.0,76,0.00,,,0.00,Wunderground v.1.15,2013-04-30 14:31:00,
2013-04-30 10:33:00,61.6,54.0,30.06,WSW,242,0.0,3.0,76,0.00,,,0.00,Wunderground v.1.15,2013-04-30 14:33:00,
2013-04-30 10:35:00,61.5,53.9,30.07,SSW,198,1.0,4.0,76,0.00,,,0.00,Wunderground v.1.15,2013-04-30 14:35:00,
2013-04-30 10:36:00,61.5,53.9,30.07,WSW,245,1.0,4.0,76,0.00,,,0.00,Wunderground v.1.15,2013-04-30 14:36:00,
2013-04-30 10:38:00,61.5,53.9,30.07,SW,218,2.0,4.0,76,0.00,,,0.00,Wunderground v.1.15,2013-04-30 14:38:00,
2013-04-30 10:40:00,61.4,53.8,30.07,SSE,162,1.0,2.0,76,0.00,,,0.00,Wunderground v.1.15,2013-04-30 14:40:00,
2013-04-30 10:41:00,61.4,53.8,30.07,SSW,208,1.0,2.0,76,0.00,,,0.00,Wunderground v.1.15,2013-04-30 14:41:00,
2013-04-30 10:43:00,61.4,53.8,30.07,SSE,153,3.0,5.0,76,0.00,,,0.00,Wunderground v.1.15,2013-04-30 14:43:00,
2013-04-30 10:44:00,61.4,53.4,30.07,SW,222,1.0,5.0,75,0.00,,,0.00,Wunderground v.1.15,2013-04-30 14:44:00,
2013-04-30 10:45:00,61.4,53.4,30.07,WNW,290,0.0,5.0,75,0.00,,,0.00,Wunderground v.1.15,2013-04-30 14:45:00,
2013-04-30 10:46:00,61.4,53.4,30.07,South,189,0.0,5.0,75,0.00,,,0.00,Wunderground v.1.15,2013-04-30 14:46:00,
2013-04-30 10:47:00,61.4,53.4,30.07,WSW,247,1.0,5.0,75,0.00,,,0.00,Wunderground v.1.15,2013-04-30 14:47:00,
2013-04-30 10:48:00,61.3,53.3,30.07,West,266,0.0,5.0,75,0.00,,,0.00,Wunderground v.1.15,2013-04-30 14:48:00,
2013-04-30 10:49:00,61.3,53.3,30.08,SSW,211,0.0,5.0,75,0.00,,,0.00,Wunderground v.1.15,2013-04-30 14:49:00,
2013-04-30 10:51:00,61.3,53.7,30.07,West,278,3.0,4.0,76,0.00,,,0.00,Wunderground v.1.15,2013-04-30 14:51:00,
2013-04-30 10:52:00,61.3,53.7,30.08,WSW,256,1.0,4.0,76,0.00,,,0.00,Wunderground v.1.15,2013-04-30 14:52:00,
2013-04-30 10:53:00,61.3,53.7,30.08,SSE,158,0.0,4.0,76,0.00,,,0.00,Wunderground v.1.15,2013-04-30 14:53:00,
2013-04-30 10:55:00,61.3,53.7,30.08,SE,139,2.0,5.0,76,0.00,,,0.00,Wunderground v.1.15,2013-04-30 14:55:00,
2013-04-30 10:56:00,61.3,53.7,30.08,SW,233,1.0,5.0,76,0.00,,,0.00,Wunderground v.1.15,2013-04-30 14:56:00,
2013-04-30 10:57:00,61.2,53.6,30.08,East,96,0.0,5.0,76,0.00,,,0.00,Wunderground v.1.15,2013-04-30 14:57:00,
2013-04-30 10:58:00,61.2,53.6,30.08,SSE,151,1.0,5.0,76,0.00,,,0.00,Wunderground v.1.15,2013-04-30 14:58:00,
2013-04-30 11:00:00,61.2,53.6,30.08,SSW,196,3.0,3.0,76,0.00,,,0.00,Wunderground v.1.15,2013-04-30 15:00:00,
2013-04-30 11:01:00,61.2,53.6,30.08,SSW,194,0.0,3.0,76,0.00,,,0.00,Wunderground v.1.15,2013-04-30 15:01:00,
2013-04-30 11:02:00,61.1,53.5,30.08,SSW,194,0.0,3.0,76,0.00,,,0.00,Wunderground v.1.15,2013-04-30 15:02:00,
2013-04-30 11:03:00,61.1,53.5,30.08,SSE,166,0.0,4.0,76,0.00,,,0.00,Wunderground v.1.15,2013-04-30 15:03:00,
2013-04-30 11:06:00,61.1,53.8,30.08,SW,225,0.0,6.0,77,0.00,,,0.00,Wunderground v.1.15,2013-04-30 15:06:00,
2013-04-30 11:07:00,61.0,53.7,30.08,SE,141,2.0,6.0,77,0.00,,,0.00,Wunderground v.1.15,2013-04-30 15:07:00,
2013-04-30 11:08:00,61.0,53.7,30.08,South,186,3.0,6.0,77,0.00,,,0.00,Wunderground v.1.15,2013-04-30 15:08:00,
2013-04-30 11:11:00,60.9,54.0,30.08,SW,224,0.0,3.0,78,0.00,,,0.00,Wunderground v.1.15,2013-04-30 15:11:00,
2013-04-30 11:13:00,60.8,53.9,30.08,SSE,155,0.0,3.0,78,0.00,,,0.00,Wunderground v.1.15,2013-04-30 15:13:00,
2013-04-30 11:14:00,60.8,53.9,30.08,SSW,198,0.0,4.0,78,0.00,,,0.00,Wunderground v.1.15,2013-04-30 15:14:00,
2013-04-30 11:16:00,60.7,54.1,30.08,SSE,165,0.0,4.0,79,0.00,,,0.00,Wunderground v.1.15,2013-04-30 15:16:00,
2013-04-30 11:18:00,60.5,54.0,30.08,SSE,158,1.0,5.0,79,0.00,,,0.00,Wunderground v.1.15,2013-04-30 15:18:00,
2013-04-30 11:19:00,60.5,54.0,30.08,WNW,284,2.0,5.0,79,0.00,,,0.00,Wunderground v.1.15,2013-04-30 15:19:00,
2013-04-30 11:21:00,60.4,53.9,30.08,WSW,239,0.0,2.0,79,0.00,,,0.00,Wunderground v.1.15,2013-04-30 15:21:00,
2013-04-30 11:22:00,60.3,53.8,30.08,SE,142,0.0,2.0,79,0.00,,,0.00,Wunderground v.1.15,2013-04-30 15:22:00,
2013-04-30 11:23:00,60.2,54.0,30.08,West,264,1.0,2.0,80,0.00,,,0.00,Wunderground v.1.15,2013-04-30 15:23:00,
2013-04-30 11:24:00,60.1,53.9,30.08,West,263,0.0,2.0,80,0.00,,,0.00,Wunderground v.1.15,2013-04-30 15:24:00,
2013-04-30 11:26:00,60.0,54.2,30.08,SW,222,0.0,2.0,81,0.00,,,0.01,Wunderground v.1.15,2013-04-30 15:26:00,
2013-04-30 11:27:00,59.9,54.1,30.08,SW,221,0.0,2.0,81,0.00,,,0.01,Wunderground v.1.15,2013-04-30 15:27:00,
2013-04-30 11:28:00,59.9,54.1,30.08,SW,222,0.0,2.0,81,0.00,,,0.01,Wunderground v.1.15,2013-04-30 15:28:00,
2013-04-30 11:29:00,59.8,54.3,30.08,SW,222,0.0,2.0,82,0.00,,,0.01,Wunderground v.1.15,2013-04-30 15:29:00,
2013-04-30 11:32:00,59.6,54.4,30.09,SW,222,0.0,0.0,83,0.10,,,0.01,Wunderground v.1.15,2013-04-30 15:32:00,
2013-04-30 11:33:00,59.4,54.2,30.09,SW,222,0.0,0.0,83,0.10,,,0.02,Wunderground v.1.15,2013-04-30 15:33:00,
2013-04-30 11:34:00,59.3,54.5,30.10,SW,222,0.0,1.0,84,0.10,,,0.02,Wunderground v.1.15,2013-04-30 15:34:00,
2013-04-30 11:37:00,59.0,54.5,30.10,SW,222,0.0,1.0,85,0.10,,,0.02,Wunderground v.1.15,2013-04-30 15:37:00,
2013-04-30 11:38:00,58.9,54.4,30.10,SW,222,0.0,1.0,85,0.10,,,0.02,Wunderground v.1.15,2013-04-30 15:38:00,
2013-04-30 11:39:00,58.9,54.4,30.10,SW,221,0.0,1.0,85,0.09,,,0.03,Wunderground v.1.15,2013-04-30 15:39:00,
2013-04-30 11:42:00,58.6,54.4,30.11,WSW,246,1.0,1.0,86,0.09,,,0.03,Wunderground v.1.15,2013-04-30 15:42:00,
2013-04-30 11:43:00,58.6,54.7,30.11,WSW,246,0.0,1.0,87,0.09,,,0.03,Wunderground v.1.15,2013-04-30 15:43:00,
2013-04-30 11:44:00,58.5,54.6,30.11,WSW,246,0.0,1.0,87,0.09,,,0.03,Wunderground v.1.15,2013-04-30 15:44:00,
2013-04-30 11:48:00,58.3,54.4,30.11,South,183,3.0,3.0,87,0.09,,,0.04,Wunderground v.1.15,2013-04-30 15:48:00,
2013-04-30 11:49:00,58.3,54.8,30.11,ESE,118,0.0,3.0,88,0.09,,,0.04,Wunderground v.1.15,2013-04-30 15:49:00,
2013-04-30 11:50:00,58.2,54.7,30.10,ESE,118,0.0,0.0,88,0.17,,,0.05,Wunderground v.1.15,2013-04-30 15:50:00,
2013-04-30 11:53:00,58.0,54.8,30.11,SSE,149,1.0,1.0,89,0.28,,,0.06,Wunderground v.1.15,2013-04-30 15:53:00,
2013-04-30 11:54:00,57.9,54.7,30.11,SW,221,0.0,1.0,89,0.28,,,0.07,Wunderground v.1.15,2013-04-30 15:54:00,
2013-04-30 11:55:00,57.9,54.7,30.11,SW,221,0.0,1.0,89,0.28,,,0.07,Wunderground v.1.15,2013-04-30 15:55:00,
2013-04-30 11:58:00,57.7,54.8,30.11,SW,219,0.0,1.0,90,0.17,,,0.08,Wunderground v.1.15,2013-04-30 15:58:00,
2013-04-30 11:59:00,57.7,54.8,30.11,South,180,1.0,2.0,90,0.27,,,0.09,Wunderground v.1.15,2013-04-30 15:59:00,
2013-04-30 12:00:00,57.7,54.8,30.11,South,173,1.0,1.0,90,0.27,,,0.09,Wunderground v.1.15,2013-04-30 16:00:00,
2013-04-30 12:03:00,57.6,55.0,30.10,SSE,155,2.0,3.0,91,0.44,,,0.12,Wunderground v.1.15,2013-04-30 16:03:00,
2013-04-30 12:05:00,57.5,54.9,30.10,SW,235,0.0,3.0,91,0.35,,,0.13,Wunderground v.1.15,2013-04-30 16:05:00,
2013-04-30 12:08:00,57.4,55.1,30.10,SSE,162,1.0,6.0,92,0.42,,,0.15,Wunderground v.1.15,2013-04-30 16:08:00,
2013-04-30 12:10:00,57.3,55.0,30.09,SSE,162,1.0,5.0,92,0.46,,,0.16,Wunderground v.1.15,2013-04-30 16:10:00,
2013-04-30 12:11:00,57.3,55.0,30.09,SE,134,3.0,5.0,92,0.35,,,0.16,Wunderground v.1.15,2013-04-30 16:11:00,
2013-04-30 12:13:00,57.2,54.9,30.07,SE,142,3.0,8.0,92,0.35,,,0.18,Wunderground v.1.15,2013-04-30 16:13:00,
2013-04-30 12:14:00,57.2,54.9,30.07,SE,131,4.0,8.0,92,0.53,,,0.18,Wunderground v.1.15,2013-04-30 16:14:00,
2013-04-30 12:15:00,57.1,54.8,30.06,SSE,158,3.0,8.0,92,0.45,,,0.19,Wunderground v.1.15,2013-04-30 16:15:00,
2013-04-30 12:16:00,57.1,54.8,30.06,SSW,200,0.0,8.0,92,0.43,,,0.20,Wunderground v.1.15,2013-04-30 16:16:00,
2013-04-30 12:18:00,57.0,54.7,30.06,South,174,4.0,8.0,92,0.28,,,0.21,Wunderground v.1.15,2013-04-30 16:18:00,
2013-04-30 12:19:00,56.9,54.9,30.05,SE,131,7.0,8.0,93,0.28,,,0.21,Wunderground v.1.15,2013-04-30 16:19:00,
2013-04-30 12:20:00,56.9,54.9,30.05,SW,225,3.0,9.0,93,0.22,,,0.21,Wunderground v.1.15,2013-04-30 16:20:00,
2013-04-30 12:21:00,56.9,54.9,30.05,SE,134,5.0,10.0,93,0.17,,,0.21,Wunderground v.1.15,2013-04-30 16:21:00,
2013-04-30 12:23:00,56.9,54.9,30.04,SE,134,8.0,10.0,93,0.10,,,0.21,Wunderground v.1.15,2013-04-30 16:23:00,
2013-04-30 12:25:00,56.9,54.9,30.04,SW,229,9.0,10.0,93,0.10,,,0.22,Wunderground v.1.15,2013-04-30 16:25:00,
2013-04-30 12:26:00,56.9,54.9,30.03,SSE,165,2.0,11.0,93,0.10,,,0.22,Wunderground v.1.15,2013-04-30 16:26:00,
2013-04-30 12:29:00,56.9,54.9,30.03,WSW,256,4.0,16.0,93,0.10,,,0.22,Wunderground v.1.15,2013-04-30 16:29:00,
2013-04-30 12:30:00,57.0,55.0,30.03,SE,132,4.0,6.0,93,0.09,,,0.22,Wunderground v.1.15,2013-04-30 16:30:00,
2013-04-30 12:31:00,56.9,54.9,30.03,SW,217,6.0,10.0,93,0.09,,,0.23,Wunderground v.1.15,2013-04-30 16:31:00,
2013-04-30 12:34:00,57.0,55.0,30.02,East,91,3.0,13.0,93,0.09,,,0.23,Wunderground v.1.15,2013-04-30 16:34:00,
2013-04-30 12:35:00,57.0,54.7,30.02,South,180,3.0,13.0,92,0.09,,,0.23,Wunderground v.1.15,2013-04-30 16:35:00,
2013-04-30 12:36:00,57.0,54.7,30.02,SE,134,11.0,14.0,92,0.11,,,0.23,Wunderground v.1.15,2013-04-30 16:36:00,
2013-04-30 12:39:00,57.1,54.8,30.01,WSW,248,6.0,19.0,92,0.20,,,0.25,Wunderground v.1.15,2013-04-30 16:39:00,
2013-04-30 12:40:00,57.1,54.8,30.01,South,179,6.0,12.0,92,0.20,,,0.25,Wunderground v.1.15,2013-04-30 16:40:00,
2013-04-30 12:41:00,57.1,54.8,30.00,South,181,7.0,12.0,92,0.20,,,0.25,Wunderground v.1.15,2013-04-30 16:41:00,
2013-04-30 12:45:00,57.1,54.8,29.98,SE,142,8.0,22.0,92,0.10,,,0.25,Wunderground v.1.15,2013-04-30 16:45:00,
2013-04-30 12:46:00,57.2,54.9,29.98,South,180,10.0,22.0,92,0.09,,,0.25,Wunderground v.1.15,2013-04-30 16:46:00,
2013-04-30 12:50:00,57.1,54.8,29.97,WNW,288,5.0,7.0,92,0.08,,,0.26,Wunderground v.1.15,2013-04-30 16:50:00,
2013-04-30 12:51:00,57.1,54.8,29.97,SW,226,7.0,11.0,92,0.08,,,0.26,Wunderground v.1.15,2013-04-30 16:51:00,
2013-04-30 12:55:00,57.2,54.9,29.97,ESE,122,2.0,21.0,92,0.08,,,0.27,Wunderground v.1.15,2013-04-30 16:55:00,
2013-04-30 12:56:00,57.2,54.9,29.97,SSE,166,7.0,21.0,92,0.08,,,0.27,Wunderground v.1.15,2013-04-30 16:56:00,
2013-04-30 12:57:00,57.2,54.6,29.97,ESE,111,9.0,21.0,91,0.08,,,0.27,Wunderground v.1.15,2013-04-30 16:57:00,
2013-04-30 13:01:00,57.4,54.8,29.99,West,269,9.0,11.0,91,0.08,,,0.27,Wunderground v.1.15,2013-04-30 17:01:00,
2013-04-30 13:02:00,57.4,54.8,29.99,SW,228,4.0,11.0,91,0.08,,,0.27,Wunderground v.1.15,2013-04-30 17:02:00,
2013-04-30 13:06:00,57.4,54.8,30.00,SE,145,3.0,14.0,91,0.05,,,0.27,Wunderground v.1.15,2013-04-30 17:06:00,
2013-04-30 13:07:00,57.5,54.9,29.99,SE,129,3.0,14.0,91,0.05,,,0.27,Wunderground v.1.15,2013-04-30 17:07:00,
2013-04-30 13:08:00,57.5,54.9,29.99,SW,223,2.0,14.0,91,0.04,,,0.27,Wunderground v.1.15,2013-04-30 17:08:00,
2013-04-30 13:11:00,57.5,54.9,29.99,SSE,165,8.0,8.0,91,0.04,,,0.27,Wunderground v.1.15,2013-04-30 17:11:00,
2013-04-30 13:12:00,57.5,54.6,29.99,South,190,2.0,8.0,90,0.00,,,0.27,Wunderground v.1.15,2013-04-30 17:12:00,
2013-04-30 13:13:00,57.5,54.6,29.98,WSW,246,1.0,8.0,90,0.00,,,0.27,Wunderground v.1.15,2013-04-30 17:13:00,
2013-04-30 13:16:00,57.6,54.7,29.98,SE,146,5.0,11.0,90,0.00,,,0.27,Wunderground v.1.15,2013-04-30 17:16:00,
2013-04-30 13:17:00,57.5,54.6,29.98,ENE,72,1.0,11.0,90,0.00,,,0.27,Wunderground v.1.15,2013-04-30 17:17:00,
2013-04-30 13:18:00,57.5,54.6,29.98,NE,50,6.0,11.0,90,0.00,,,0.27,Wunderground v.1.15,2013-04-30 17:18:00,
2013-04-30 13:21:00,57.6,54.7,29.98,ESE,118,0.0,6.0,90,0.00,,,0.27,Wunderground v.1.15,2013-04-30 17:21:00,
2013-04-30 13:22:00,57.6,54.7,29.98,NE,41,2.0,6.0,90,0.00,,,0.27,Wunderground v.1.15,2013-04-30 17:22:00,
2013-04-30 13:23:00,57.6,54.7,29.98,ESE,109,2.0,6.0,90,0.00,,,0.27,Wunderground v.1.15,2013-04-30 17:23:00,
2013-04-30 13:26:00,57.6,54.7,29.99,SW,218,1.0,7.0,90,0.00,,,0.27,Wunderground v.1.15,2013-04-30 17:26:00,
2013-04-30 13:27:00,57.7,54.8,29.99,SE,143,1.0,7.0,90,0.00,,,0.27,Wunderground v.1.15,2013-04-30 17:27:00,
2013-04-30 13:28:00,57.7,54.8,29.99,ENE,76,0.0,7.0,90,0.00,,,0.27,Wunderground v.1.15,2013-04-30 17:28:00,
2013-04-30 13:32:00,57.9,55.0,30.01,NE,42,4.0,6.0,90,0.00,,,0.27,Wunderground v.1.15,2013-04-30 17:32:00,
2013-04-30 13:33:00,58.0,54.8,30.01,West,270,3.0,6.0,89,0.00,,,0.27,Wunderground v.1.15,2013-04-30 17:33:00,
2013-04-30 13:37:00,58.4,54.9,30.04,West,271,4.0,6.0,88,0.00,,,0.27,Wunderground v.1.15,2013-04-30 17:37:00,
2013-04-30 13:38:00,58.5,55.0,30.04,WSW,256,3.0,6.0,88,0.00,,,0.27,Wunderground v.1.15,2013-04-30 17:38:00,
2013-04-30 13:39:00,58.6,55.1,30.04,WSW,252,3.0,6.0,88,0.00,,,0.27,Wunderground v.1.15,2013-04-30 17:39:00,
2013-04-30 13:42:00,58.9,55.0,30.04,WSW,243,7.0,7.0,87,0.00,,,0.27,Wunderground v.1.15,2013-04-30 17:42:00,
2013-04-30 13:43:00,58.9,55.0,30.04,WSW,256,4.0,7.0,87,0.00,,,0.27,Wunderground v.1.15,2013-04-30 17:43:00,
2013-04-30 13:44:00,59.0,55.1,30.04,WSW,248,8.0,8.0,87,0.00,,,0.27,Wunderground v.1.15,2013-04-30 17:44:00,
2013-04-30 13:47:00,59.1,55.2,30.05,SW,229,1.0,9.0,87,0.00,,,0.27,Wunderground v.1.15,2013-04-30 17:47:00,
2013-04-30 13:48:00,59.2,55.3,30.04,West,266,1.0,9.0,87,0.00,,,0.27,Wunderground v.1.15,2013-04-30 17:48:00,
2013-04-30 13:49:00,59.3,55.4,30.04,WSW,252,3.0,9.0,87,0.00,,,0.27,Wunderground v.1.15,2013-04-30 17:49:00,
2013-04-30 13:52:00,59.6,56.0,30.04,WSW,252,5.0,6.0,88,0.00,,,0.27,Wunderground v.1.15,2013-04-30 17:52:00,
2013-04-30 13:53:00,59.7,55.8,30.04,SSE,165,2.0,6.0,87,0.00,,,0.27,Wunderground v.1.15,2013-04-30 17:53:00,
2013-04-30 13:54:00,59.7,55.8,30.04,SSW,205,2.0,6.0,87,0.00,,,0.27,Wunderground v.1.15,2013-04-30 17:54:00,
2013-04-30 13:57:00,60.0,56.1,30.04,WSW,251,1.0,8.0,87,0.00,,,0.27,Wunderground v.1.15,2013-04-30 17:57:00,
2013-04-30 13:58:00,60.1,56.5,30.04,West,271,1.0,8.0,88,0.00,,,0.27,Wunderground v.1.15,2013-04-30 17:58:00,
2013-04-30 13:59:00,60.2,56.6,30.04,SW,218,3.0,8.0,88,0.00,,,0.27,Wunderground v.1.15,2013-04-30 17:59:00,
2013-04-30 14:02:00,60.5,56.6,30.04,SSW,204,2.0,7.0,87,0.00,,,0.27,Wunderground v.1.15,2013-04-30 18:02:00,
2013-04-30 14:04:00,60.6,56.7,30.04,WSW,242,1.0,7.0,87,0.00,,,0.27,Wunderground v.1.15,2013-04-30 18:04:00,
2013-04-30 14:05:00,60.8,56.9,30.04,SSE,155,2.0,7.0,87,0.00,,,0.27,Wunderground v.1.15,2013-04-30 18:05:00,
2013-04-30 14:07:00,61.1,56.9,30.04,SE,145,1.0,7.0,86,0.00,,,0.27,Wunderground v.1.15,2013-04-30 18:07:00,
2013-04-30 14:09:00,61.2,57.0,30.04,SSW,208,1.0,7.0,86,0.00,,,0.27,Wunderground v.1.15,2013-04-30 18:09:00,
2013-04-30 14:10:00,61.2,57.0,30.04,SSE,166,2.0,6.0,86,0.00,,,0.27,Wunderground v.1.15,2013-04-30 18:10:00,
2013-04-30 14:13:00,61.4,56.8,30.04,South,170,2.0,6.0,85,0.00,,,0.27,Wunderground v.1.15,2013-04-30 18:13:00,
2013-04-30 14:14:00,61.6,57.0,30.04,SE,129,4.0,15.0,85,0.00,,,0.27,Wunderground v.1.15,2013-04-30 18:14:00,
2013-04-30 14:15:00,61.6,56.7,30.03,SW,233,3.0,15.0,84,0.00,,,0.27,Wunderground v.1.15,2013-04-30 18:15:00,
2013-04-30 14:18:00,61.9,57.0,30.03,South,177,5.0,15.0,84,0.00,,,0.27,Wunderground v.1.15,2013-04-30 18:18:00,
2013-04-30 14:19:00,62.0,57.1,30.03,SW,224,3.0,15.0,84,0.00,,,0.27,Wunderground v.1.15,2013-04-30 18:19:00,
2013-04-30 14:20:00,62.1,57.2,30.03,WSW,248,4.0,4.0,84,0.00,,,0.27,Wunderground v.1.15,2013-04-30 18:20:00,
2013-04-30 14:23:00,62.5,57.3,30.03,West,264,2.0,11.0,83,0.00,,,0.27,Wunderground v.1.15,2013-04-30 18:23:00,
2013-04-30 14:24:00,62.6,57.4,30.03,WSW,246,1.0,11.0,83,0.00,,,0.27,Wunderground v.1.15,2013-04-30 18:24:00,
2013-04-30 14:25:00,62.7,57.5,30.03,NW,308,2.0,11.0,83,0.00,,,0.27,Wunderground v.1.15,2013-04-30 18:25:00,
2013-04-30 14:26:00,62.8,57.6,30.03,WSW,243,1.0,11.0,83,0.00,,,0.27,Wunderground v.1.15,2013-04-30 18:26:00,
2013-04-30 14:29:00,63.2,57.3,30.03,SE,140,6.0,11.0,81,0.00,,,0.27,Wunderground v.1.15,2013-04-30 18:29:00,
2013-04-30 14:30:00,63.3,57.4,30.03,SSE,161,8.0,8.0,81,0.00,,,0.27,Wunderground v.1.15,2013-04-30 18:30:00,
2013-04-30 14:31:00,63.3,57.4,30.03,South,174,3.0,12.0,81,0.00,,,0.27,Wunderground v.1.15,2013-04-30 18:31:00,
2013-04-30 14:34:00,63.5,56.9,30.03,South,190,1.0,12.0,79,0.00,,,0.27,Wunderground v.1.15,2013-04-30 18:34:00,
2013-04-30 14:35:00,63.6,57.0,30.03,SSE,152,3.0,12.0,79,0.00,,,0.27,Wunderground v.1.15,2013-04-30 18:35:00,
2013-04-30 14:36:00,63.6,57.0,30.03,SW,236,7.0,12.0,79,0.00,,,0.27,Wunderground v.1.15,2013-04-30 18:36:00,
2013-04-30 14:39:00,63.8,57.2,30.03,WSW,240,1.0,12.0,79,0.00,,,0.27,Wunderground v.1.15,2013-04-30 18:39:00,
2013-04-30 14:40:00,63.9,56.9,30.03,WSW,256,2.0,8.0,78,0.00,,,0.27,Wunderground v.1.15,2013-04-30 18:40:00,
2013-04-30 14:41:00,64.0,57.4,30.03,WSW,245,2.0,8.0,79,0.00,,,0.27,Wunderground v.1.15,2013-04-30 18:41:00,
2013-04-30 14:44:00,64.5,57.5,30.03,SSW,194,5.0,10.0,78,0.00,,,0.27,Wunderground v.1.15,2013-04-30 18:44:00,
2013-04-30 14:45:00,64.5,57.5,30.03,SW,235,4.0,10.0,78,0.00,,,0.27,Wunderground v.1.15,2013-04-30 18:45:00,
2013-04-30 14:46:00,64.7,57.7,30.03,SE,146,2.0,10.0,78,0.00,,,0.27,Wunderground v.1.15,2013-04-30 18:46:00,
2013-04-30 14:50:00,65.1,57.3,30.03,SSE,152,1.0,3.0,76,0.00,,,0.27,Wunderground v.1.15,2013-04-30 18:50:00,
2013-04-30 14:51:00,65.2,57.1,30.03,South,188,4.0,8.0,75,0.00,,,0.27,Wunderground v.1.15,2013-04-30 18:51:00,
2013-04-30 14:52:00,65.3,57.2,30.03,SSW,202,2.0,8.0,75,0.00,,,0.27,Wunderground v.1.15,2013-04-30 18:52:00,
2013-04-30 14:55:00,65.6,57.5,30.03,SW,215,1.0,10.0,75,0.00,,,0.27,Wunderground v.1.15,2013-04-30 18:55:00,
2013-04-30 14:56:00,65.7,57.9,30.03,SSW,195,2.0,10.0,76,0.00,,,0.27,Wunderground v.1.15,2013-04-30 18:56:00,
2013-04-30 14:57:00,66.0,58.2,30.03,SW,232,3.0,10.0,76,0.00,,,0.27,Wunderground v.1.15,2013-04-30 18:57:00,
2013-04-30 15:00:00,66.3,57.0,30.03,SE,146,2.0,4.0,72,0.00,,,0.27,Wunderground v.1.15,2013-04-30 19:00:00,
2013-04-30 15:01:00,66.4,57.5,30.03,SW,224,4.0,5.0,73,0.00,,,0.27,Wunderground v.1.15,2013-04-30 19:01:00,
2013-04-30 15:02:00,66.4,57.5,30.03,SW,229,2.0,5.0,73,0.00,,,0.27,Wunderground v.1.15,2013-04-30 19:02:00,
2013-04-30 15:05:00,66.7,57.4,30.03,WSW,252,2.0,9.0,72,0.00,,,0.27,Wunderground v.1.15,2013-04-30 19:05:00,
2013-04-30 15:06:00,66.8,57.9,30.03,WSW,240,2.0,9.0,73,0.00,,,0.27,Wunderground v.1.15,2013-04-30 19:06:00,
2013-04-30 15:07:00,66.9,58.0,30.03,SSE,156,2.0,9.0,73,0.00,,,0.27,Wunderground v.1.15,2013-04-30 19:07:00,
2013-04-30 15:10:00,67.4,58.1,30.03,West,272,2.0,6.0,72,0.00,,,0.27,Wunderground v.1.15,2013-04-30 19:10:00,
2013-04-30 15:11:00,67.5,57.8,30.03,WSW,240,2.0,6.0,71,0.00,,,0.27,Wunderground v.1.15,2013-04-30 19:11:00,
2013-04-30 15:12:00,67.6,57.9,30.03,SE,141,2.0,6.0,71,0.00,,,0.27,Wunderground v.1.15,2013-04-30 19:12:00,
2013-04-30 15:13:00,67.7,58.0,30.03,SSE,166,1.0,6.0,71,0.00,,,0.27,Wunderground v.1.15,2013-04-30 19:13:00,
2013-04-30 15:15:00,67.8,57.7,30.03,SSW,212,1.0,7.0,70,0.00,,,0.27,Wunderground v.1.15,2013-04-30 19:15:00,
2013-04-30 15:16:00,67.9,57.8,30.03,SW,222,4.0,7.0,70,0.00,,,0.27,Wunderground v.1.15,2013-04-30 19:16:00,
2013-04-30 15:17:00,67.8,57.7,30.03,SE,129,5.0,7.0,70,0.00,,,0.27,Wunderground v.1.15,2013-04-30 19:17:00,
2013-04-30 15:18:00,67.8,57.7,30.03,East,93,2.0,7.0,70,0.00,,,0.27,Wunderground v.1.15,2013-04-30 19:18:00,
2013-04-30 15:21:00,67.7,57.2,30.03,WSW,252,3.0,4.0,69,0.00,,,0.27,Wunderground v.1.15,2013-04-30 19:21:00,
2013-04-30 15:22:00,67.7,57.6,30.03,SW,221,2.0,4.0,70,0.00,,,0.27,Wunderground v.1.15,2013-04-30 19:22:00,
2013-04-30 15:23:00,67.6,57.1,30.03,SSW,203,2.0,4.0,69,0.00,,,0.27,Wunderground v.1.15,2013-04-30 19:23:00,
2013-04-30 15:26:00,67.5,57.0,30.03,WSW,257,1.0,10.0,69,0.00,,,0.27,Wunderground v.1.15,2013-04-30 19:26:00,
2013-04-30 15:27:00,67.4,56.9,30.03,South,172,5.0,10.0,69,0.00,,,0.27,Wunderground v.1.15,2013-04-30 19:27:00,
2013-04-30 15:28:00,67.3,56.8,30.03,WSW,249,2.0,10.0,69,0.00,,,0.27,Wunderground v.1.15,2013-04-30 19:28:00,
2013-04-30 15:31:00,67.2,56.7,30.03,SSE,158,4.0,8.0,69,0.00,,,0.27,Wunderground v.1.15,2013-04-30 19:31:00,
2013-04-30 15:32:00,67.2,56.3,30.03,SE,139,4.0,10.0,68,0.00,,,0.27,Wunderground v.1.15,2013-04-30 19:32:00,
2013-04-30 15:33:00,67.1,56.2,30.03,SSW,195,6.0,10.0,68,0.00,,,0.27,Wunderground v.1.15,2013-04-30 19:33:00,
2013-04-30 15:36:00,67.0,56.1,30.03,SSE,150,7.0,12.0,68,0.00,,,0.27,Wunderground v.1.15,2013-04-30 19:36:00,
2013-04-30 15:37:00,67.0,56.1,30.03,West,270,2.0,12.0,68,0.00,,,0.27,Wunderground v.1.15,2013-04-30 19:37:00,
2013-04-30 15:38:00,66.9,56.0,30.03,South,179,7.0,12.0,68,0.00,,,0.27,Wunderground v.1.15,2013-04-30 19:38:00,
2013-04-30 15:42:00,66.8,56.3,30.03,SE,142,6.0,6.0,69,0.00,,,0.27,Wunderground v.1.15,2013-04-30 19:42:00,
2013-04-30 15:43:00,66.8,55.9,30.02,WSW,240,4.0,6.0,68,0.00,,,0.27,Wunderground v.1.15,2013-04-30 19:43:00,
2013-04-30 15:47:00,66.8,55.9,30.02,SW,218,1.0,9.0,68,0.00,,,0.27,Wunderground v.1.15,2013-04-30 19:47:00,
2013-04-30 15:48:00,66.8,56.3,30.02,South,179,7.0,9.0,69,0.00,,,0.27,Wunderground v.1.15,2013-04-30 19:48:00,
2013-04-30 15:49:00,66.9,56.4,30.02,West,262,2.0,9.0,69,0.00,,,0.27,Wunderground v.1.15,2013-04-30 19:49:00,
2013-04-30 15:53:00,67.1,56.6,30.02,SSE,160,5.0,5.0,69,0.00,,,0.27,Wunderground v.1.15,2013-04-30 19:53:00,
2013-04-30 15:54:00,67.1,56.2,30.02,SSE,160,1.0,7.0,68,0.00,,,0.27,Wunderground v.1.15,2013-04-30 19:54:00,
2013-04-30 15:58:00,67.4,56.5,30.02,SSE,165,2.0,7.0,68,0.00,,,0.27,Wunderground v.1.15,2013-04-30 19:58:00,
2013-04-30 15:59:00,67.5,56.6,30.02,WSW,252,2.0,7.0,68,0.00,,,0.27,Wunderground v.1.15,2013-04-30 19:59:00,
2013-04-30 16:03:00,68.2,56.8,30.01,SSE,155,2.0,8.0,67,0.00,,,0.27,Wunderground v.1.15,2013-04-30 20:03:00,
2013-04-30 16:04:00,68.4,57.0,30.01,SSW,193,3.0,8.0,67,0.00,,,0.27,Wunderground v.1.15,2013-04-30 20:04:00,
2013-04-30 16:08:00,69.3,57.5,30.02,SW,226,2.0,8.0,66,0.00,,,0.27,Wunderground v.1.15,2013-04-30 20:08:00,
2013-04-30 16:09:00,69.4,57.5,30.02,SW,231,3.0,8.0,66,0.00,,,0.27,Wunderground v.1.15,2013-04-30 20:09:00,
2013-04-30 16:13:00,70.2,58.3,30.01,West,276,1.0,7.0,66,0.00,,,0.27,Wunderground v.1.15,2013-04-30 20:13:00,
2013-04-30 16:14:00,70.3,58.4,30.01,WSW,242,2.0,7.0,66,0.00,,,0.27,Wunderground v.1.15,2013-04-30 20:14:00,
2013-04-30 16:18:00,70.7,57.0,30.01,SSE,155,2.0,11.0,62,0.00,,,0.27,Wunderground v.1.15,2013-04-30 20:18:00,
2013-04-30 16:19:00,70.7,57.0,30.01,WSW,255,3.0,11.0,62,0.00,,,0.27,Wunderground v.1.15,2013-04-30 20:19:00,
2013-04-30 16:20:00,70.8,58.0,30.01,South,169,2.0,4.0,64,0.00,,,0.27,Wunderground v.1.15,2013-04-30 20:20:00,
2013-04-30 16:24:00,71.2,57.5,30.01,South,176,2.0,10.0,62,0.00,,,0.27,Wunderground v.1.15,2013-04-30 20:24:00,
2013-04-30 16:25:00,71.3,57.2,30.01,SSE,155,1.0,10.0,61,0.00,,,0.27,Wunderground v.1.15,2013-04-30 20:25:00,
2013-04-30 16:29:00,71.4,57.7,30.01,WSW,245,3.0,11.0,62,0.00,,,0.27,Wunderground v.1.15,2013-04-30 20:29:00,
2013-04-30 16:30:00,71.4,57.7,30.01,South,176,3.0,8.0,62,0.00,,,0.27,Wunderground v.1.15,2013-04-30 20:30:00,
2013-04-30 16:34:00,71.1,56.5,30.01,SE,131,3.0,11.0,60,0.00,,,0.27,Wunderground v.1.15,2013-04-30 20:34:00,
2013-04-30 16:35:00,71.0,56.9,30.01,SSE,159,12.0,12.0,61,0.00,,,0.27,Wunderground v.1.15,2013-04-30 20:35:00,
2013-04-30 16:36:00,70.9,56.8,30.01,South,188,2.0,12.0,61,0.00,,,0.27,Wunderground v.1.15,2013-04-30 20:36:00,
2013-04-30 16:39:00,70.5,56.4,30.01,South,170,11.0,12.0,61,0.00,,,0.27,Wunderground v.1.15,2013-04-30 20:39:00,
2013-04-30 16:40:00,70.5,56.9,30.01,WNW,288,1.0,4.0,62,0.00,,,0.27,Wunderground v.1.15,2013-04-30 20:40:00,
2013-04-30 16:41:00,70.5,56.9,30.01,SSE,152,4.0,5.0,62,0.00,,,0.27,Wunderground v.1.15,2013-04-30 20:41:00,
2013-04-30 16:44:00,70.3,56.7,30.01,SSE,166,1.0,11.0,62,0.00,,,0.27,Wunderground v.1.15,2013-04-30 20:44:00,
2013-04-30 16:45:00,70.2,56.6,30.01,SW,236,2.0,11.0,62,0.00,,,0.27,Wunderground v.1.15,2013-04-30 20:45:00,
2013-04-30 16:46:00,70.2,57.0,30.01,WSW,256,3.0,11.0,63,0.00,,,0.27,Wunderground v.1.15,2013-04-30 20:46:00,
2013-04-30 16:50:00,70.0,56.4,30.01,South,174,4.0,5.0,62,0.00,,,0.27,Wunderground v.1.15,2013-04-30 20:50:00,
2013-04-30 16:51:00,69.9,56.3,30.01,SE,141,1.0,12.0,62,0.00,,,0.27,Wunderground v.1.15,2013-04-30 20:51:00,
2013-04-30 16:55:00,69.8,56.2,30.01,SW,224,4.0,12.0,62,0.00,,,0.27,Wunderground v.1.15,2013-04-30 20:55:00,
2013-04-30 16:56:00,69.8,56.2,30.01,SE,132,6.0,12.0,62,0.00,,,0.27,Wunderground v.1.15,2013-04-30 20:56:00,
2013-04-30 16:57:00,69.7,56.1,30.00,SE,143,1.0,12.0,62,0.00,,,0.27,Wunderground v.1.15,2013-04-30 20:57:00,
2013-04-30 17:00:00,69.6,56.0,30.01,WSW,252,3.0,7.0,62,0.00,,,0.27,Wunderground v.1.15,2013-04-30 21:00:00,
2013-04-30 17:01:00,69.6,56.0,30.01,SW,224,3.0,7.0,62,0.00,,,0.27,Wunderground v.1.15,2013-04-30 21:01:00,
2013-04-30 17:02:00,69.6,56.0,30.00,SSE,148,2.0,11.0,62,0.00,,,0.27,Wunderground v.1.15,2013-04-30 21:02:00,
2013-04-30 17:06:00,69.9,56.3,30.01,SE,143,3.0,11.0,62,0.00,,,0.27,Wunderground v.1.15,2013-04-30 21:06:00,
2013-04-30 17:07:00,70.1,56.5,30.01,South,176,3.0,11.0,62,0.00,,,0.27,Wunderground v.1.15,2013-04-30 21:07:00,
2013-04-30 17:11:00,70.4,56.3,30.00,WSW,252,3.0,14.0,61,0.00,,,0.27,Wunderground v.1.15,2013-04-30 21:11:00,
2013-04-30 17:12:00,70.4,56.3,30.01,West,278,1.0,14.0,61,0.00,,,0.27,Wunderground v.1.15,2013-04-30 21:12:00,
2013-04-30 17:16:00,70.7,56.6,30.01,SSE,154,3.0,14.0,61,0.00,,,0.27,Wunderground v.1.15,2013-04-30 21:16:00,
2013-04-30 17:17:00,70.8,56.7,30.01,WNW,295,2.0,14.0,61,0.00,,,0.27,Wunderground v.1.15,2013-04-30 21:17:00,
2013-04-30 17:18:00,70.9,56.8,30.00,SE,145,3.0,14.0,61,0.00,,,0.27,Wunderground v.1.15,2013-04-30 21:18:00,
2013-04-30 17:21:00,70.9,56.8,30.01,South,185,9.0,9.0,61,0.00,,,0.27,Wunderground v.1.15,2013-04-30 21:21:00,
2013-04-30 17:22:00,70.9,56.3,30.01,SW,229,6.0,12.0,60,0.00,,,0.27,Wunderground v.1.15,2013-04-30 21:22:00,
2013-04-30 17:23:00,70.9,56.3,30.01,SW,221,3.0,12.0,60,0.00,,,0.27,Wunderground v.1.15,2013-04-30 21:23:00,
2013-04-30 17:26:00,70.9,56.3,30.01,South,176,2.0,12.0,60,0.00,,,0.27,Wunderground v.1.15,2013-04-30 21:26:00,
2013-04-30 17:27:00,70.9,56.3,30.01,SSW,212,1.0,12.0,60,0.00,,,0.27,Wunderground v.1.15,2013-04-30 21:27:00,
2013-04-30 17:29:00,70.9,56.3,30.01,WSW,240,2.0,12.0,60,0.00,,,0.27,Wunderground v.1.15,2013-04-30 21:29:00,
2013-04-30 17:31:00,70.9,56.8,30.01,SSE,167,2.0,11.0,61,0.00,,,0.27,Wunderground v.1.15,2013-04-30 21:31:00,
2013-04-30 17:32:00,71.0,56.9,30.01,West,260,2.0,11.0,61,0.00,,,0.27,Wunderground v.1.15,2013-04-30 21:32:00,
2013-04-30 17:33:00,71.0,56.9,30.01,SE,134,2.0,11.0,61,0.00,,,0.27,Wunderground v.1.15,2013-04-30 21:33:00,
2013-04-30 17:34:00,71.0,56.9,30.01,South,172,3.0,11.0,61,0.00,,,0.27,Wunderground v.1.15,2013-04-30 21:34:00,
2013-04-30 17:36:00,71.1,57.0,30.01,South,190,2.0,11.0,61,0.00,,,0.27,Wunderground v.1.15,2013-04-30 21:36:00,
2013-04-30 17:37:00,71.0,56.9,30.01,South,172,2.0,11.0,61,0.00,,,0.27,Wunderground v.1.15,2013-04-30 21:37:00,
2013-04-30 17:38:00,71.0,56.4,30.01,SW,219,3.0,11.0,60,0.00,,,0.27,Wunderground v.1.15,2013-04-30 21:38:00,
2013-04-30 17:39:00,71.0,56.4,30.01,SSW,205,10.0,12.0,60,0.00,,,0.27,Wunderground v.1.15,2013-04-30 21:39:00,
2013-04-30 17:42:00,70.7,56.6,30.01,SSE,158,6.0,12.0,61,0.00,,,0.27,Wunderground v.1.15,2013-04-30 21:42:00,
2013-04-30 17:43:00,70.6,56.5,30.01,South,172,2.0,12.0,61,0.00,,,0.27,Wunderground v.1.15,2013-04-30 21:43:00,
2013-04-30 17:44:00,70.5,56.4,30.01,West,265,3.0,12.0,61,0.00,,,0.27,Wunderground v.1.15,2013-04-30 21:44:00,
2013-04-30 17:47:00,70.3,56.2,30.01,ESE,113,2.0,12.0,61,0.00,,,0.27,Wunderground v.1.15,2013-04-30 21:47:00,
2013-04-30 17:48:00,70.3,56.7,30.01,SW,235,1.0,12.0,62,0.00,,,0.27,Wunderground v.1.15,2013-04-30 21:48:00,
2013-04-30 17:49:00,70.3,56.7,30.01,WSW,248,5.0,12.0,62,0.00,,,0.27,Wunderground v.1.15,2013-04-30 21:49:00,
2013-04-30 17:52:00,70.2,56.6,30.01,WSW,241,2.0,10.0,62,0.00,,,0.27,Wunderground v.1.15,2013-04-30 21:52:00,
2013-04-30 17:53:00,70.2,56.6,30.01,North,349,6.0,15.0,62,0.00,,,0.27,Wunderground v.1.15,2013-04-30 21:53:00,
2013-04-30 17:54:00,70.2,56.6,30.01,West,259,1.0,15.0,62,0.00,,,0.27,Wunderground v.1.15,2013-04-30 21:54:00,
2013-04-30 17:57:00,70.2,56.6,30.01,SSE,158,6.0,15.0,62,0.00,,,0.27,Wunderground v.1.15,2013-04-30 21:57:00,
2013-04-30 17:58:00,70.1,56.5,30.01,SW,221,7.0,15.0,62,0.00,,,0.27,Wunderground v.1.15,2013-04-30 21:58:00,
2013-04-30 17:59:00,70.1,56.5,30.01,WSW,242,2.0,15.0,62,0.00,,,0.27,Wunderground v.1.15,2013-04-30 21:59:00,
2013-04-30 18:00:00,70.1,56.9,30.01,SSW,211,2.0,5.0,63,0.00,,,0.27,Wunderground v.1.15,2013-04-30 22:00:00,
2013-04-30 18:03:00,70.1,56.5,30.01,West,274,4.0,9.0,62,0.00,,,0.27,Wunderground v.1.15,2013-04-30 22:03:00,
2013-04-30 18:04:00,70.1,56.9,30.01,SSE,148,4.0,9.0,63,0.00,,,0.27,Wunderground v.1.15,2013-04-30 22:04:00,
2013-04-30 18:05:00,70.1,56.5,30.01,SSE,167,2.0,9.0,62,0.00,,,0.27,Wunderground v.1.15,2013-04-30 22:05:00,
2013-04-30 18:06:00,70.0,56.4,30.01,SSE,152,7.0,9.0,62,0.00,,,0.27,Wunderground v.1.15,2013-04-30 22:06:00,
2013-04-30 18:08:00,70.0,56.4,30.01,South,186,2.0,11.0,62,0.00,,,0.27,Wunderground v.1.15,2013-04-30 22:08:00,
2013-04-30 18:09:00,70.0,56.4,30.01,West,274,4.0,11.0,62,0.00,,,0.27,Wunderground v.1.15,2013-04-30 22:09:00,
2013-04-30 18:10:00,70.0,56.4,30.01,WSW,239,4.0,8.0,62,0.00,,,0.27,Wunderground v.1.15,2013-04-30 22:10:00,
2013-04-30 18:11:00,69.9,56.3,30.01,WSW,240,2.0,8.0,62,0.00,,,0.27,Wunderground v.1.15,2013-04-30 22:11:00,
2013-04-30 18:13:00,69.9,56.3,30.01,WSW,256,3.0,8.0,62,0.00,,,0.27,Wunderground v.1.15,2013-04-30 22:13:00,
2013-04-30 18:14:00,69.9,56.7,30.01,WSW,252,3.0,8.0,63,0.00,,,0.27,Wunderground v.1.15,2013-04-30 22:14:00,
2013-04-30 18:15:00,69.9,56.3,30.01,SW,225,3.0,8.0,62,0.00,,,0.27,Wunderground v.1.15,2013-04-30 22:15:00,
2013-04-30 18:16:00,69.9,56.3,30.01,SW,218,4.0,14.0,62,0.00,,,0.27,Wunderground v.1.15,2013-04-30 22:16:00,
2013-04-30 18:18:00,69.9,56.7,30.01,SW,228,4.0,14.0,63,0.00,,,0.27,Wunderground v.1.15,2013-04-30 22:18:00,
2013-04-30 18:20:00,69.9,56.3,30.01,SSE,152,3.0,5.0,62,0.00,,,0.27,Wunderground v.1.15,2013-04-30 22:20:00,
2013-04-30 18:21:00,69.9,56.3,30.01,SSE,151,8.0,8.0,62,0.00,,,0.27,Wunderground v.1.15,2013-04-30 22:21:00,
2013-04-30 18:23:00,70.0,56.4,30.01,West,264,1.0,8.0,62,0.00,,,0.27,Wunderground v.1.15,2013-04-30 22:23:00,
2013-04-30 18:25:00,70.0,56.4,30.01,SE,129,2.0,8.0,62,0.00,,,0.27,Wunderground v.1.15,2013-04-30 22:25:00,
2013-04-30 18:26:00,70.0,56.4,30.01,SSE,149,3.0,8.0,62,0.00,,,0.27,Wunderground v.1.15,2013-04-30 22:26:00,
2013-04-30 18:28:00,69.9,56.3,30.01,South,180,3.0,8.0,62,0.00,,,0.27,Wunderground v.1.15,2013-04-30 22:28:00,
2013-04-30 18:30:00,69.9,56.3,30.01,ESE,113,4.0,5.0,62,0.00,,,0.27,Wunderground v.1.15,2013-04-30 22:30:00,
2013-04-30 18:31:00,70.0,56.4,30.01,WNW,300,4.0,7.0,62,0.00,,,0.27,Wunderground v.1.15,2013-04-30 22:31:00,
2013-04-30 18:32:00,69.9,56.3,30.01,West,263,2.0,7.0,62,0.00,,,0.27,Wunderground v.1.15,2013-04-30 22:32:00,
2013-04-30 18:33:00,69.9,56.3,30.02,SSE,156,2.0,7.0,62,0.00,,,0.27,Wunderground v.1.15,2013-04-30 22:33:00,
2013-04-30 18:35:00,69.9,56.3,30.02,WSW,257,3.0,12.0,62,0.00,,,0.27,Wunderground v.1.15,2013-04-30 22:35:00,
2013-04-30 18:36:00,69.9,56.3,30.02,SE,141,1.0,12.0,62,0.00,,,0.27,Wunderground v.1.15,2013-04-30 22:36:00,
2013-04-30 18:37:00,69.9,56.3,30.02,SSW,197,2.0,12.0,62,0.00,,,0.27,Wunderground v.1.15,2013-04-30 22:37:00,
2013-04-30 18:38:00,69.9,56.3,30.02,SSW,203,2.0,12.0,62,0.00,,,0.27,Wunderground v.1.15,2013-04-30 22:38:00,
2013-04-30 18:40:00,69.8,56.2,30.02,SW,215,2.0,6.0,62,0.00,,,0.27,Wunderground v.1.15,2013-04-30 22:40:00,
2013-04-30 18:41:00,69.8,56.2,30.02,SSW,198,3.0,10.0,62,0.00,,,0.27,Wunderground v.1.15,2013-04-30 22:41:00,
2013-04-30 18:42:00,69.8,56.2,30.02,SW,221,2.0,10.0,62,0.00,,,0.27,Wunderground v.1.15,2013-04-30 22:42:00,
2013-04-30 18:44:00,69.8,56.2,30.02,SW,224,2.0,10.0,62,0.00,,,0.27,Wunderground v.1.15,2013-04-30 22:44:00,
2013-04-30 18:46:00,69.8,56.6,30.02,West,266,1.0,10.0,63,0.00,,,0.27,Wunderground v.1.15,2013-04-30 22:46:00,
2013-04-30 18:47:00,69.7,56.5,30.02,SW,231,5.0,10.0,63,0.00,,,0.27,Wunderground v.1.15,2013-04-30 22:47:00,
2013-04-30 18:48:00,69.7,56.1,30.02,SW,218,1.0,10.0,62,0.00,,,0.27,Wunderground v.1.15,2013-04-30 22:48:00,
2013-04-30 18:49:00,69.7,56.5,30.02,East,83,1.0,3.0,63,0.00,,,0.27,Wunderground v.1.15,2013-04-30 22:49:00,
2013-04-30 18:51:00,69.7,56.5,30.02,South,174,5.0,5.0,63,0.00,,,0.27,Wunderground v.1.15,2013-04-30 22:51:00,
2013-04-30 18:52:00,69.7,56.5,30.02,SE,129,1.0,7.0,63,0.00,,,0.27,Wunderground v.1.15,2013-04-30 22:52:00,
2013-04-30 18:53:00,69.7,56.5,30.02,SSW,200,2.0,7.0,63,0.00,,,0.27,Wunderground v.1.15,2013-04-30 22:53:00,
2013-04-30 18:55:00,69.7,56.5,30.02,SSW,212,7.0,8.0,63,0.00,,,0.27,Wunderground v.1.15,2013-04-30 22:55:00,
2013-04-30 18:56:00,69.6,56.4,30.02,SW,221,2.0,8.0,63,0.00,,,0.27,Wunderground v.1.15,2013-04-30 22:56:00,
2013-04-30 18:57:00,69.6,56.4,30.02,SW,222,2.0,8.0,63,0.00,,,0.27,Wunderground v.1.15,2013-04-30 22:57:00,
2013-04-30 18:58:00,69.6,56.4,30.02,SE,146,4.0,11.0,63,0.00,,,0.27,Wunderground v.1.15,2013-04-30 22:58:00,
2013-04-30 19:00:00,69.6,56.0,30.02,SSW,208,2.0,4.0,62,0.00,,,0.27,Wunderground v.1.15,2013-04-30 23:00:00,
2013-04-30 19:01:00,69.5,56.3,30.02,West,269,5.0,6.0,63,0.00,,,0.27,Wunderground v.1.15,2013-04-30 23:01:00,
2013-04-30 19:02:00,69.5,56.3,30.02,SW,222,2.0,8.0,63,0.00,,,0.27,Wunderground v.1.15,2013-04-30 23:02:00,
2013-04-30 19:03:00,69.4,55.8,30.02,SSE,165,4.0,8.0,62,0.00,,,0.27,Wunderground v.1.15,2013-04-30 23:03:00,
2013-04-30 19:05:00,69.4,56.3,30.02,SW,229,0.0,8.0,63,0.00,,,0.27,Wunderground v.1.15,2013-04-30 23:05:00,
2013-04-30 19:06:00,69.4,56.3,30.02,WSW,248,0.0,8.0,63,0.00,,,0.27,Wunderground v.1.15,2013-04-30 23:06:00,
2013-04-30 19:07:00,69.5,56.3,30.02,SW,236,3.0,8.0,63,0.00,,,0.27,Wunderground v.1.15,2013-04-30 23:07:00,
2013-04-30 19:08:00,69.4,56.3,30.02,SW,232,2.0,8.0,63,0.00,,,0.27,Wunderground v.1.15,2013-04-30 23:08:00,
2013-04-30 19:11:00,69.4,56.3,30.02,ENE,75,2.0,7.0,63,0.00,,,0.27,Wunderground v.1.15,2013-04-30 23:11:00,
2013-04-30 19:12:00,69.3,56.2,30.02,East,98,2.0,7.0,63,0.00,,,0.27,Wunderground v.1.15,2013-04-30 23:12:00,
2013-04-30 19:14:00,69.3,56.2,30.02,SSW,201,1.0,7.0,63,0.00,,,0.27,Wunderground v.1.15,2013-04-30 23:14:00,
2013-04-30 19:16:00,69.2,56.1,30.02,SW,214,1.0,7.0,63,0.00,,,0.27,Wunderground v.1.15,2013-04-30 23:16:00,
2013-04-30 19:17:00,69.2,56.1,30.02,SSW,210,1.0,7.0,63,0.00,,,0.27,Wunderground v.1.15,2013-04-30 23:17:00,
2013-04-30 19:19:00,69.1,56.0,30.02,SW,233,5.0,8.0,63,0.00,,,0.27,Wunderground v.1.15,2013-04-30 23:19:00,
2013-04-30 19:21:00,69.1,56.0,30.02,South,178,4.0,5.0,63,0.00,,,0.27,Wunderground v.1.15,2013-04-30 23:21:00,
2013-04-30 19:22:00,69.0,55.9,30.02,West,271,1.0,7.0,63,0.00,,,0.27,Wunderground v.1.15,2013-04-30 23:22:00,
2013-04-30 19:23:00,69.0,55.9,30.02,SW,221,1.0,7.0,63,0.00,,,0.27,Wunderground v.1.15,2013-04-30 23:23:00,
2013-04-30 19:24:00,68.9,55.8,30.02,SSW,204,2.0,7.0,63,0.00,,,0.27,Wunderground v.1.15,2013-04-30 23:24:00,
2013-04-30 19:26:00,68.9,56.2,30.02,South,173,1.0,7.0,64,0.00,,,0.27,Wunderground v.1.15,2013-04-30 23:26:00,
2013-04-30 19:27:00,68.9,56.2,30.02,South,170,5.0,7.0,64,0.00,,,0.27,Wunderground v.1.15,2013-04-30 23:27:00,
2013-04-30 19:28:00,68.8,56.1,30.02,SSW,206,1.0,7.0,64,0.00,,,0.27,Wunderground v.1.15,2013-04-30 23:28:00,
2013-04-30 19:29:00,68.8,56.1,30.02,WSW,242,3.0,7.0,64,0.00,,,0.27,Wunderground v.1.15,2013-04-30 23:29:00,
2013-04-30 19:31:00,68.7,56.0,30.02,South,180,3.0,9.0,64,0.00,,,0.27,Wunderground v.1.15,2013-04-30 23:31:00,
2013-04-30 19:32:00,68.7,56.0,30.02,WSW,244,2.0,9.0,64,0.00,,,0.27,Wunderground v.1.15,2013-04-30 23:32:00,
2013-04-30 19:33:00,68.6,55.9,30.02,East,91,2.0,9.0,64,0.00,,,0.27,Wunderground v.1.15,2013-04-30 23:33:00,
2013-04-30 19:34:00,68.6,55.9,30.02,WSW,255,1.0,9.0,64,0.00,,,0.27,Wunderground v.1.15,2013-04-30 23:34:00,
2013-04-30 19:36:00,68.6,55.9,30.02,South,170,2.0,9.0,64,0.00,,,0.27,Wunderground v.1.15,2013-04-30 23:36:00,
2013-04-30 19:37:00,68.5,55.8,30.02,SE,141,1.0,9.0,64,0.00,,,0.27,Wunderground v.1.15,2013-04-30 23:37:00,
2013-04-30 19:39:00,68.5,56.3,30.02,NW,304,3.0,9.0,65,0.00,,,0.27,Wunderground v.1.15,2013-04-30 23:39:00,
2013-04-30 19:41:00,68.4,55.7,30.02,South,172,4.0,7.0,64,0.00,,,0.27,Wunderground v.1.15,2013-04-30 23:41:00,
2013-04-30 19:42:00,68.4,55.7,30.02,South,174,0.0,7.0,64,0.00,,,0.27,Wunderground v.1.15,2013-04-30 23:42:00,
2013-04-30 19:44:00,68.3,55.6,30.02,SE,127,1.0,7.0,64,0.00,,,0.27,Wunderground v.1.15,2013-04-30 23:44:00,
2013-04-30 19:45:00,68.3,55.6,30.02,SE,141,2.0,8.0,64,0.00,,,0.27,Wunderground v.1.15,2013-04-30 23:45:00,
2013-04-30 19:46:00,68.2,55.6,30.02,SW,214,1.0,11.0,64,0.00,,,0.27,Wunderground v.1.15,2013-04-30 23:46:00,
2013-04-30 19:47:00,68.2,55.6,30.02,SW,229,5.0,11.0,64,0.00,,,0.27,Wunderground v.1.15,2013-04-30 23:47:00,
2013-04-30 19:48:00,68.2,55.6,30.02,SW,229,1.0,11.0,64,0.00,,,0.27,Wunderground v.1.15,2013-04-30 23:48:00,
2013-04-30 19:49:00,68.1,55.9,30.02,SW,229,3.0,11.0,65,0.00,,,0.27,Wunderground v.1.15,2013-04-30 23:49:00,
2013-04-30 19:50:00,68.1,55.9,30.03,SSE,163,1.0,3.0,65,0.00,,,0.27,Wunderground v.1.15,2013-04-30 23:50:00,
2013-04-30 19:52:00,68.0,55.4,30.03,ESE,122,6.0,7.0,64,0.00,,,0.27,Wunderground v.1.15,2013-04-30 23:52:00,
2013-04-30 19:54:00,67.9,55.7,30.03,WSW,240,3.0,9.0,65,0.00,,,0.27,Wunderground v.1.15,2013-04-30 23:54:00,
2013-04-30 19:55:00,67.9,55.7,30.03,West,265,1.0,9.0,65,0.00,,,0.27,Wunderground v.1.15,2013-04-30 23:55:00,
2013-04-30 19:57:00,67.9,55.7,30.03,WSW,238,2.0,9.0,65,0.00,,,0.27,Wunderground v.1.15,2013-04-30 23:57:00,
2013-04-30 19:59:00,67.7,55.5,30.03,WSW,239,3.0,10.0,65,0.00,,,0.27,Wunderground v.1.15,2013-04-30 23:59:00,
2013-04-30 20:01:00,67.7,55.5,30.03,West,259,7.0,7.0,65,0.00,,,0.27,Wunderground v.1.15,2013-05-01 00:01:00,
2013-04-30 20:02:00,67.6,55.4,30.03,SSE,157,2.0,7.0,65,0.00,,,0.27,Wunderground v.1.15,2013-05-01 00:02:00,
2013-04-30 20:04:00,67.5,55.3,30.03,South,169,2.0,7.0,65,0.00,,,0.27,Wunderground v.1.15,2013-05-01 00:04:00,
2013-04-30 20:06:00,67.4,55.6,30.03,WNW,285,1.0,7.0,66,0.00,,,0.27,Wunderground v.1.15,2013-05-01 00:06:00,
2013-04-30 20:07:00,67.4,55.6,30.03,SW,233,0.0,7.0,66,0.00,,,0.27,Wunderground v.1.15,2013-05-01 00:07:00,
2013-04-30 20:08:00,67.4,55.6,30.03,SSW,200,2.0,7.0,66,0.00,,,0.27,Wunderground v.1.15,2013-05-01 00:08:00,
2013-04-30 20:09:00,67.3,55.5,30.03,SSW,208,1.0,7.0,66,0.00,,,0.27,Wunderground v.1.15,2013-05-01 00:09:00,
2013-04-30 20:10:00,67.2,55.5,30.03,SW,214,4.0,7.0,66,0.00,,,0.27,Wunderground v.1.15,2013-05-01 00:10:00,
2013-04-30 20:11:00,67.2,55.5,30.03,WSW,239,1.0,7.0,66,0.00,,,0.27,Wunderground v.1.15,2013-05-01 00:11:00,
2013-04-30 20:12:00,67.2,55.5,30.03,East,96,1.0,7.0,66,0.00,,,0.27,Wunderground v.1.15,2013-05-01 00:12:00,
2013-04-30 20:13:00,67.1,55.4,30.03,WSW,252,1.0,7.0,66,0.00,,,0.27,Wunderground v.1.15,2013-05-01 00:13:00,
2013-04-30 20:14:00,67.1,55.4,30.03,WSW,239,1.0,7.0,66,0.00,,,0.27,Wunderground v.1.15,2013-05-01 00:14:00,
2013-04-30 20:15:00,67.0,55.3,30.03,SW,219,1.0,7.0,66,0.00,,,0.27,Wunderground v.1.15,2013-05-01 00:15:00,
2013-04-30 20:17:00,66.9,55.6,30.03,SSW,208,0.0,7.0,67,0.00,,,0.27,Wunderground v.1.15,2013-05-01 00:17:00,
2013-04-30 20:19:00,66.8,55.5,30.04,SSW,211,1.0,7.0,67,0.00,,,0.27,Wunderground v.1.15,2013-05-01 00:19:00,
2013-04-30 20:20:00,66.7,55.4,30.03,SW,235,2.0,2.0,67,0.00,,,0.27,Wunderground v.1.15,2013-05-01 00:20:00,
2013-04-30 20:22:00,66.6,55.3,30.04,SW,232,0.0,8.0,67,0.00,,,0.27,Wunderground v.1.15,2013-05-01 00:22:00,
2013-04-30 20:24:00,66.6,55.3,30.04,South,190,1.0,8.0,67,0.00,,,0.27,Wunderground v.1.15,2013-05-01 00:24:00,
2013-04-30 20:25:00,66.6,55.3,30.04,SSE,152,2.0,8.0,67,0.00,,,0.27,Wunderground v.1.15,2013-05-01 00:25:00,
2013-04-30 20:27:00,66.4,55.1,30.04,SW,224,1.0,8.0,67,0.00,,,0.27,Wunderground v.1.15,2013-05-01 00:27:00,
2013-04-30 20:28:00,66.4,55.1,30.04,WSW,255,2.0,8.0,67,0.00,,,0.27,Wunderground v.1.15,2013-05-01 00:28:00,
2013-04-30 20:29:00,66.4,55.1,30.04,SW,236,2.0,8.0,67,0.00,,,0.27,Wunderground v.1.15,2013-05-01 00:29:00,
2013-04-30 20:30:00,66.4,55.5,30.04,SW,236,0.0,2.0,68,0.00,,,0.27,Wunderground v.1.15,2013-05-01 00:30:00,
2013-04-30 20:31:00,66.3,55.4,30.04,SSE,156,0.0,2.0,68,0.00,,,0.27,Wunderground v.1.15,2013-05-01 00:31:00,
2013-04-30 20:32:00,66.3,55.4,30.04,SSW,200,4.0,5.0,68,0.00,,,0.27,Wunderground v.1.15,2013-05-01 00:32:00,
2013-04-30 20:33:00,66.2,55.3,30.04,SSW,211,0.0,5.0,68,0.00,,,0.27,Wunderground v.1.15,2013-05-01 00:33:00,
2013-04-30 20:34:00,66.2,55.3,30.04,SW,231,1.0,5.0,68,0.00,,,0.27,Wunderground v.1.15,2013-05-01 00:34:00,
2013-04-30 20:35:00,66.1,55.2,30.04,SW,232,0.0,5.0,68,0.00,,,0.27,Wunderground v.1.15,2013-05-01 00:35:00,
2013-04-30 20:36:00,66.1,55.2,30.04,SW,232,0.0,5.0,68,0.00,,,0.27,Wunderground v.1.15,2013-05-01 00:36:00,
2013-04-30 20:38:00,66.0,55.1,30.04,SSW,194,0.0,5.0,68,0.00,,,0.27,Wunderground v.1.15,2013-05-01 00:38:00,
2013-04-30 20:39:00,65.9,55.0,30.04,SSW,193,0.0,5.0,68,0.00,,,0.27,Wunderground v.1.15,2013-05-01 00:39:00,
2013-04-30 20:40:00,65.8,55.3,30.04,South,177,1.0,1.0,69,0.00,,,0.27,Wunderground v.1.15,2013-05-01 00:40:00,
2013-04-30 20:41:00,65.8,55.3,30.04,South,177,0.0,1.0,69,0.00,,,0.27,Wunderground v.1.15,2013-05-01 00:41:00,
2013-04-30 20:43:00,65.7,55.2,30.05,South,176,0.0,3.0,69,0.00,,,0.27,Wunderground v.1.15,2013-05-01 00:43:00,
2013-04-30 20:44:00,65.6,55.2,30.05,SSE,155,1.0,3.0,69,0.00,,,0.27,Wunderground v.1.15,2013-05-01 00:44:00,
2013-04-30 20:46:00,65.4,55.0,30.04,SSE,155,0.0,3.0,69,0.00,,,0.27,Wunderground v.1.15,2013-05-01 00:46:00,
2013-04-30 20:48:00,65.2,55.2,30.05,SSE,155,0.0,3.0,70,0.00,,,0.27,Wunderground v.1.15,2013-05-01 00:48:00,
2013-04-30 20:49:00,65.2,55.2,30.05,SSE,155,1.0,3.0,70,0.00,,,0.27,Wunderground v.1.15,2013-05-01 00:49:00,
2013-04-30 20:50:00,65.1,55.1,30.05,SSE,155,1.0,1.0,70,0.00,,,0.27,Wunderground v.1.15,2013-05-01 00:50:00,
2013-04-30 20:51:00,65.0,55.0,30.05,SSE,150,1.0,2.0,70,0.00,,,0.27,Wunderground v.1.15,2013-05-01 00:51:00,
2013-04-30 20:53:00,64.9,55.3,30.05,SSE,148,0.0,2.0,71,0.00,,,0.27,Wunderground v.1.15,2013-05-01 00:53:00,
2013-04-30 20:54:00,64.7,55.1,30.05,SSE,148,0.0,2.0,71,0.00,,,0.27,Wunderground v.1.15,2013-05-01 00:54:00,
2013-04-30 20:55:00,64.7,55.1,30.05,SSE,148,0.0,2.0,71,0.00,,,0.27,Wunderground v.1.15,2013-05-01 00:55:00,
2013-04-30 20:56:00,64.6,55.0,30.05,SW,229,0.0,2.0,71,0.00,,,0.27,Wunderground v.1.15,2013-05-01 00:56:00,
2013-04-30 20:58:00,64.4,55.2,30.05,SW,229,0.0,2.0,72,0.00,,,0.27,Wunderground v.1.15,2013-05-01 00:58:00,
2013-04-30 20:59:00,64.2,55.0,30.05,SW,229,0.0,2.0,72,0.00,,,0.27,Wunderground v.1.15,2013-05-01 00:59:00,
2013-04-30 21:00:00,64.2,55.0,30.05,SW,229,0.0,0.0,72,0.00,,,0.27,Wunderground v.1.15,2013-05-01 01:00:00,
2013-04-30 21:01:00,64.0,54.8,30.05,SW,229,0.0,0.0,72,0.00,,,0.27,Wunderground v.1.15,2013-05-01 01:01:00,
2013-04-30 21:02:00,64.0,54.8,30.05,SW,229,0.0,1.0,72,0.00,,,0.27,Wunderground v.1.15,2013-05-01 01:02:00,
2013-04-30 21:03:00,63.8,55.0,30.05,SW,229,0.0,1.0,73,0.00,,,0.27,Wunderground v.1.15,2013-05-01 01:03:00,
2013-04-30 21:05:00,63.7,54.9,30.05,SW,229,0.0,1.0,73,0.00,,,0.27,Wunderground v.1.15,2013-05-01 01:05:00,
2013-04-30 21:06:00,63.6,54.8,30.05,SW,229,0.0,1.0,73,0.00,,,0.27,Wunderground v.1.15,2013-05-01 01:06:00,
2013-04-30 21:07:00,63.6,54.8,30.06,SW,229,0.0,1.0,73,0.00,,,0.27,Wunderground v.1.15,2013-05-01 01:07:00,
2013-04-30 21:09:00,63.4,55.0,30.06,SW,229,0.0,1.0,74,0.00,,,0.27,Wunderground v.1.15,2013-05-01 01:09:00,
2013-04-30 21:10:00,63.3,54.9,30.06,SW,225,0.0,1.0,74,0.00,,,0.27,Wunderground v.1.15,2013-05-01 01:10:00,
2013-04-30 21:11:00,63.3,54.9,30.06,SW,225,0.0,1.0,74,0.00,,,0.27,Wunderground v.1.15,2013-05-01 01:11:00,
2013-04-30 21:12:00,63.2,54.8,30.06,SSW,196,0.0,1.0,74,0.00,,,0.27,Wunderground v.1.15,2013-05-01 01:12:00,
2013-04-30 21:14:00,63.1,55.0,30.06,SSW,201,0.0,1.0,75,0.00,,,0.27,Wunderground v.1.15,2013-05-01 01:14:00,
2013-04-30 21:15:00,63.0,54.9,30.06,SSW,201,0.0,1.0,75,0.00,,,0.27,Wunderground v.1.15,2013-05-01 01:15:00,
2013-04-30 21:16:00,62.9,54.9,30.06,SSE,157,1.0,2.0,75,0.00,,,0.27,Wunderground v.1.15,2013-05-01 01:16:00,
2013-04-30 21:17:00,62.9,54.9,30.06,SSE,156,0.0,2.0,75,0.00,,,0.27,Wunderground v.1.15,2013-05-01 01:17:00,
2013-04-30 21:19:00,62.8,54.8,30.06,SSW,208,0.0,3.0,75,0.00,,,0.27,Wunderground v.1.15,2013-05-01 01:19:00,
2013-04-30 21:20:00,62.8,55.1,30.06,SSW,208,0.0,0.0,76,0.00,,,0.27,Wunderground v.1.15,2013-05-01 01:20:00,
2013-04-30 21:21:00,62.8,55.1,30.06,SW,229,0.0,1.0,76,0.00,,,0.27,Wunderground v.1.15,2013-05-01 01:21:00,
2013-04-30 21:22:00,62.7,55.0,30.06,SW,229,0.0,1.0,76,0.00,,,0.27,Wunderground v.1.15,2013-05-01 01:22:00,
2013-04-30 21:23:00,62.7,55.0,30.06,SW,229,0.0,1.0,76,0.00,,,0.27,Wunderground v.1.15,2013-05-01 01:23:00,
2013-04-30 21:24:00,62.7,55.0,30.07,SW,219,1.0,3.0,76,0.00,,,0.27,Wunderground v.1.15,2013-05-01 01:24:00,
2013-04-30 21:25:00,62.7,55.0,30.07,SSE,165,0.0,3.0,76,0.00,,,0.27,Wunderground v.1.15,2013-05-01 01:25:00,
2013-04-30 21:27:00,62.6,54.9,30.07,SSE,165,0.0,3.0,76,0.00,,,0.27,Wunderground v.1.15,2013-05-01 01:27:00,
2013-04-30 21:28:00,62.6,54.9,30.07,SSE,165,0.0,3.0,76,0.00,,,0.27,Wunderground v.1.15,2013-05-01 01:28:00,
2013-04-30 21:29:00,62.6,54.9,30.07,SSE,165,0.0,3.0,76,0.00,,,0.27,Wunderground v.1.15,2013-05-01 01:29:00,
2013-04-30 21:30:00,62.5,54.8,30.07,SW,215,1.0,1.0,76,0.00,,,0.27,Wunderground v.1.15,2013-05-01 01:30:00,
2013-04-30 21:32:00,62.5,54.8,30.07,SSE,148,1.0,2.0,76,0.00,,,0.27,Wunderground v.1.15,2013-05-01 01:32:00,
2013-04-30 21:33:00,62.4,54.7,30.07,SSW,198,0.0,2.0,76,0.00,,,0.27,Wunderground v.1.15,2013-05-01 01:33:00,
2013-04-30 21:34:00,62.4,54.7,30.07,SE,131,2.0,5.0,76,0.00,,,0.27,Wunderground v.1.15,2013-05-01 01:34:00,
2013-04-30 21:36:00,62.3,54.6,30.07,SSE,153,1.0,5.0,76,0.00,,,0.27,Wunderground v.1.15,2013-05-01 01:36:00,
2013-04-30 21:37:00,62.4,54.7,30.07,SSE,155,3.0,5.0,76,0.00,,,0.27,Wunderground v.1.15,2013-05-01 01:37:00,
2013-04-30 21:38:00,62.4,54.7,30.07,SW,218,0.0,5.0,76,0.00,,,0.27,Wunderground v.1.15,2013-05-01 01:38:00,
2013-04-30 21:40:00,62.3,55.0,30.07,SSE,153,2.0,2.0,77,0.00,,,0.27,Wunderground v.1.15,2013-05-01 01:40:00,
2013-04-30 21:41:00,62.3,55.0,30.07,SSE,155,0.0,2.0,77,0.00,,,0.27,Wunderground v.1.15,2013-05-01 01:41:00,
2013-04-30 21:42:00,62.2,54.9,30.07,SSE,155,0.0,2.0,77,0.00,,,0.27,Wunderground v.1.15,2013-05-01 01:42:00,
2013-04-30 21:43:00,62.2,54.9,30.07,SSE,160,0.0,2.0,77,0.00,,,0.27,Wunderground v.1.15,2013-05-01 01:43:00,
2013-04-30 21:45:00,62.1,54.8,30.07,SSE,160,0.0,2.0,77,0.00,,,0.27,Wunderground v.1.15,2013-05-01 01:45:00,
2013-04-30 21:46:00,62.0,54.7,30.07,SSE,160,0.0,2.0,77,0.00,,,0.27,Wunderground v.1.15,2013-05-01 01:46:00,
2013-04-30 21:47:00,62.0,54.7,30.07,SSW,212,0.0,2.0,77,0.00,,,0.27,Wunderground v.1.15,2013-05-01 01:47:00,
2013-04-30 21:48:00,62.0,54.7,30.07,SSW,210,0.0,2.0,77,0.00,,,0.27,Wunderground v.1.15,2013-05-01 01:48:00,
2013-04-30 21:50:00,61.8,54.5,30.07,SSE,167,1.0,1.0,77,0.00,,,0.27,Wunderground v.1.15,2013-05-01 01:50:00,
2013-04-30 21:52:00,61.8,54.9,30.07,SSE,162,0.0,1.0,78,0.00,,,0.27,Wunderground v.1.15,2013-05-01 01:52:00,
2013-04-30 21:53:00,61.7,54.8,30.07,SW,219,3.0,3.0,78,0.00,,,0.27,Wunderground v.1.15,2013-05-01 01:53:00,
2013-04-30 21:56:00,61.6,54.7,30.07,South,188,0.0,3.0,78,0.00,,,0.27,Wunderground v.1.15,2013-05-01 01:56:00,
2013-04-30 21:57:00,61.6,54.7,30.08,SE,131,1.0,3.0,78,0.00,,,0.27,Wunderground v.1.15,2013-05-01 01:57:00,
2013-04-30 21:58:00,61.6,54.7,30.08,SSE,147,2.0,3.0,78,0.00,,,0.27,Wunderground v.1.15,2013-05-01 01:58:00,
2013-04-30 21:59:00,61.6,54.7,30.07,South,179,0.0,4.0,78,0.00,,,0.27,Wunderground v.1.15,2013-05-01 01:59:00,
2013-04-30 22:01:00,61.5,54.6,30.08,SE,136,0.0,1.0,78,0.00,,,0.27,Wunderground v.1.15,2013-05-01 02:01:00,
2013-04-30 22:02:00,61.5,54.6,30.08,SE,136,0.0,1.0,78,0.00,,,0.27,Wunderground v.1.15,2013-05-01 02:02:00,
2013-04-30 22:03:00,61.5,54.6,30.08,SE,138,0.0,1.0,78,0.00,,,0.27,Wunderground v.1.15,2013-05-01 02:03:00,
2013-04-30 22:04:00,61.4,54.5,30.08,SE,139,0.0,2.0,78,0.00,,,0.27,Wunderground v.1.15,2013-05-01 02:04:00,
2013-04-30 22:06:00,61.4,54.5,30.08,SE,146,0.0,2.0,78,0.00,,,0.27,Wunderground v.1.15,2013-05-01 02:06:00,
2013-04-30 22:07:00,61.4,54.5,30.08,SE,145,1.0,2.0,78,0.00,,,0.27,Wunderground v.1.15,2013-05-01 02:07:00,
2013-04-30 22:08:00,61.4,54.5,30.08,SE,145,0.0,2.0,78,0.00,,,0.27,Wunderground v.1.15,2013-05-01 02:08:00,
2013-04-30 22:09:00,61.4,54.5,30.08,SSW,212,0.0,2.0,78,0.00,,,0.27,Wunderground v.1.15,2013-05-01 02:09:00,
2013-04-30 22:11:00,61.3,54.4,30.08,SE,140,0.0,1.0,78,0.00,,,0.27,Wunderground v.1.15,2013-05-01 02:11:00,
2013-04-30 22:12:00,61.3,54.4,30.08,SE,139,0.0,1.0,78,0.00,,,0.27,Wunderground v.1.15,2013-05-01 02:12:00,
2013-04-30 22:13:00,61.3,54.4,30.08,SE,145,0.0,1.0,78,0.00,,,0.27,Wunderground v.1.15,2013-05-01 02:13:00,
2013-04-30 22:14:00,61.2,54.3,30.08,SW,226,0.0,1.0,78,0.00,,,0.27,Wunderground v.1.15,2013-05-01 02:14:00,
2013-04-30 22:17:00,61.1,54.2,30.08,SW,226,0.0,1.0,78,0.00,,,0.27,Wunderground v.1.15,2013-05-01 02:17:00,
2013-04-30 22:18:00,61.1,54.5,30.08,SW,226,0.0,1.0,79,0.00,,,0.27,Wunderground v.1.15,2013-05-01 02:18:00,
2013-04-30 22:19:00,61.0,54.4,30.08,SSW,194,0.0,1.0,79,0.00,,,0.27,Wunderground v.1.15,2013-05-01 02:19:00,
2013-04-30 22:22:00,60.9,54.3,30.08,South,188,0.0,4.0,79,0.00,,,0.27,Wunderground v.1.15,2013-05-01 02:22:00,
2013-04-30 22:23:00,60.9,54.3,30.08,South,188,1.0,4.0,79,0.00,,,0.27,Wunderground v.1.15,2013-05-01 02:23:00,
2013-04-30 22:24:00,60.8,54.2,30.08,South,188,0.0,4.0,79,0.00,,,0.27,Wunderground v.1.15,2013-05-01 02:24:00,
2013-04-30 22:25:00,60.7,54.1,30.08,South,174,0.0,4.0,79,0.00,,,0.27,Wunderground v.1.15,2013-05-01 02:25:00,
2013-04-30 22:27:00,60.6,54.0,30.08,South,174,0.0,4.0,79,0.00,,,0.27,Wunderground v.1.15,2013-05-01 02:27:00,
2013-04-30 22:28:00,60.5,54.0,30.08,South,174,0.0,4.0,79,0.00,,,0.27,Wunderground v.1.15,2013-05-01 02:28:00,
2013-04-30 22:29:00,60.4,53.9,30.08,South,174,0.0,4.0,79,0.00,,,0.27,Wunderground v.1.15,2013-05-01 02:29:00,
2013-04-30 22:30:00,60.4,53.9,30.08,South,189,0.0,0.0,79,0.00,,,0.27,Wunderground v.1.15,2013-05-01 02:30:00,
2013-04-30 22:32:00,60.3,54.1,30.08,SW,229,0.0,1.0,80,0.00,,,0.27,Wunderground v.1.15,2013-05-01 02:32:00,
2013-04-30 22:33:00,60.2,54.0,30.08,SSW,194,0.0,1.0,80,0.00,,,0.27,Wunderground v.1.15,2013-05-01 02:33:00,
2013-04-30 22:34:00,60.2,54.0,30.08,SSW,194,0.0,1.0,80,0.00,,,0.27,Wunderground v.1.15,2013-05-01 02:34:00,
2013-04-30 22:35:00,60.1,53.9,30.08,SSW,194,0.0,1.0,80,0.00,,,0.27,Wunderground v.1.15,2013-05-01 02:35:00,
2013-04-30 22:38:00,60.0,53.8,30.08,SSE,160,0.0,2.0,80,0.00,,,0.27,Wunderground v.1.15,2013-05-01 02:38:00,
2013-04-30 22:39:00,59.9,53.7,30.08,SSE,160,0.0,2.0,80,0.00,,,0.27,Wunderground v.1.15,2013-05-01 02:39:00,
2013-04-30 22:40:00,59.9,53.7,30.08,SSE,160,0.0,0.0,80,0.00,,,0.27,Wunderground v.1.15,2013-05-01 02:40:00,
2013-04-30 22:43:00,59.7,53.9,30.08,SSE,160,0.0,0.0,81,0.00,,,0.27,Wunderground v.1.15,2013-05-01 02:43:00,
2013-04-30 22:44:00,59.6,53.8,30.08,SSE,160,0.0,0.0,81,0.00,,,0.27,Wunderground v.1.15,2013-05-01 02:44:00,
2013-04-30 22:45:00,59.5,53.7,30.08,SSE,160,0.0,0.0,81,0.00,,,0.27,Wunderground v.1.15,2013-05-01 02:45:00,
2013-04-30 22:48:00,59.3,53.5,30.08,SSE,160,0.0,0.0,81,0.00,,,0.27,Wunderground v.1.15,2013-05-01 02:48:00,
2013-04-30 22:49:00,59.3,53.5,30.08,SSE,160,0.0,0.0,81,0.00,,,0.27,Wunderground v.1.15,2013-05-01 02:49:00,
2013-04-30 22:50:00,59.2,53.7,30.08,SSE,160,0.0,0.0,82,0.00,,,0.27,Wunderground v.1.15,2013-05-01 02:50:00,
2013-04-30 22:53:00,59.1,53.6,30.08,SSE,160,0.0,0.0,82,0.00,,,0.27,Wunderground v.1.15,2013-05-01 02:53:00,
2013-04-30 22:54:00,59.0,53.5,30.08,SSE,161,0.0,0.0,82,0.00,,,0.27,Wunderground v.1.15,2013-05-01 02:54:00,
2013-04-30 22:55:00,59.0,53.5,30.08,East,88,0.0,0.0,82,0.00,,,0.27,Wunderground v.1.15,2013-05-01 02:55:00,
2013-04-30 22:58:00,58.8,53.3,30.08,East,88,0.0,0.0,82,0.00,,,0.27,Wunderground v.1.15,2013-05-01 02:58:00,
2013-04-30 22:59:00,58.8,53.6,30.08,ENE,62,1.0,2.0,83,0.00,,,0.27,Wunderground v.1.15,2013-05-01 02:59:00,
2013-04-30 23:00:00,58.8,53.6,30.08,ENE,63,0.0,0.0,83,0.00,,,0.27,Wunderground v.1.15,2013-05-01 03:00:00,
2013-04-30 23:03:00,58.7,53.5,30.08,ENE,63,0.0,0.0,83,0.00,,,0.27,Wunderground v.1.15,2013-05-01 03:03:00,
2013-04-30 23:04:00,58.7,53.5,30.08,ENE,63,0.0,1.0,83,0.00,,,0.27,Wunderground v.1.15,2013-05-01 03:04:00,
2013-04-30 23:05:00,58.7,53.5,30.08,ENE,64,0.0,1.0,83,0.00,,,0.27,Wunderground v.1.15,2013-05-01 03:05:00,
2013-04-30 23:08:00,58.5,53.4,30.09,ENE,63,0.0,1.0,83,0.00,,,0.27,Wunderground v.1.15,2013-05-01 03:08:00,
2013-04-30 23:09:00,58.5,53.4,30.08,ENE,64,0.0,1.0,83,0.00,,,0.27,Wunderground v.1.15,2013-05-01 03:09:00,
2013-04-30 23:10:00,58.4,53.3,30.08,ENE,62,0.0,0.0,83,0.00,,,0.27,Wunderground v.1.15,2013-05-01 03:10:00,
2013-04-30 23:13:00,58.3,53.5,30.09,ENE,63,0.0,0.0,84,0.00,,,0.27,Wunderground v.1.15,2013-05-01 03:13:00,
2013-04-30 23:14:00,58.2,53.4,30.09,SW,219,1.0,1.0,84,0.00,,,0.27,Wunderground v.1.15,2013-05-01 03:14:00,
2013-04-30 23:15:00,58.2,53.4,30.09,SW,218,0.0,1.0,84,0.00,,,0.27,Wunderground v.1.15,2013-05-01 03:15:00,
2013-04-30 23:16:00,58.2,53.4,30.09,SSE,156,0.0,1.0,84,0.00,,,0.27,Wunderground v.1.15,2013-05-01 03:16:00,
2013-04-30 23:19:00,58.2,53.7,30.09,SSE,156,0.0,1.0,85,0.00,,,0.27,Wunderground v.1.15,2013-05-01 03:19:00,
2013-04-30 23:20:00,58.2,53.4,30.08,SSE,149,1.0,2.0,84,0.00,,,0.27,Wunderground v.1.15,2013-05-01 03:20:00,
2013-04-30 23:21:00,58.2,53.7,30.09,SSE,167,2.0,2.0,85,0.00,,,0.27,Wunderground v.1.15,2013-05-01 03:21:00,
2013-04-30 23:24:00,58.2,53.7,30.09,SSE,148,0.0,2.0,85,0.00,,,0.27,Wunderground v.1.15,2013-05-01 03:24:00,
2013-04-30 23:25:00,58.2,53.7,30.09,SE,136,0.0,2.0,85,0.00,,,0.27,Wunderground v.1.15,2013-05-01 03:25:00,
2013-04-30 23:26:00,58.2,53.7,30.09,SE,136,0.0,2.0,85,0.00,,,0.27,Wunderground v.1.15,2013-05-01 03:26:00,
2013-04-30 23:29:00,58.1,53.6,30.09,SE,136,0.0,2.0,85,0.00,,,0.27,Wunderground v.1.15,2013-05-01 03:29:00,
2013-04-30 23:30:00,58.1,53.6,30.09,SE,136,0.0,0.0,85,0.00,,,0.27,Wunderground v.1.15,2013-05-01 03:30:00,
2013-04-30 23:31:00,58.0,53.5,30.09,SE,136,0.0,0.0,85,0.00,,,0.27,Wunderground v.1.15,2013-05-01 03:31:00,
2013-04-30 23:35:00,57.9,53.4,30.09,SE,136,0.0,1.0,85,0.00,,,0.27,Wunderground v.1.15,2013-05-01 03:35:00,
2013-04-30 23:36:00,57.8,53.3,30.09,SE,136,0.0,1.0,85,0.00,,,0.27,Wunderground v.1.15,2013-05-01 03:36:00,
2013-04-30 23:37:00,57.8,53.3,30.09,SE,136,0.0,1.0,85,0.00,,,0.27,Wunderground v.1.15,2013-05-01 03:37:00,
2013-04-30 23:40:00,57.6,53.1,30.09,SE,136,0.0,1.0,85,0.00,,,0.27,Wunderground v.1.15,2013-05-01 03:40:00,
2013-04-30 23:41:00,57.6,53.1,30.09,SE,136,0.0,1.0,85,0.00,,,0.27,Wunderground v.1.15,2013-05-01 03:41:00,
2013-04-30 23:42:00,57.5,53.3,30.09,SE,136,0.0,1.0,86,0.00,,,0.27,Wunderground v.1.15,2013-05-01 03:42:00,
2013-04-30 23:45:00,57.5,53.3,30.09,SE,136,0.0,1.0,86,0.00,,,0.27,Wunderground v.1.15,2013-05-01 03:45:00,
2013-04-30 23:46:00,57.4,53.2,30.09,SE,136,0.0,1.0,86,0.00,,,0.27,Wunderground v.1.15,2013-05-01 03:46:00,
2013-04-30 23:47:00,57.4,53.2,30.09,SE,136,1.0,1.0,86,0.00,,,0.27,Wunderground v.1.15,2013-05-01 03:47:00,
2013-04-30 23:48:00,57.4,53.2,30.09,SE,136,0.0,1.0,86,0.00,,,0.27,Wunderground v.1.15,2013-05-01 03:48:00,
2013-04-30 23:50:00,57.3,53.1,30.09,SE,136,0.0,0.0,86,0.00,,,0.27,Wunderground v.1.15,2013-05-01 03:50:00,
2013-04-30 23:51:00,57.3,53.1,30.09,SE,136,0.0,0.0,86,0.00,,,0.27,Wunderground v.1.15,2013-05-01 03:51:00,
2013-04-30 23:52:00,57.2,53.0,30.09,SE,136,0.0,0.0,86,0.00,,,0.27,Wunderground v.1.15,2013-05-01 03:52:00,
2013-04-30 23:53:00,57.2,53.0,30.09,SE,136,0.0,0.0,86,0.00,,,0.27,Wunderground v.1.15,2013-05-01 03:53:00,
2013-04-30 23:55:00,57.1,53.0,30.09,SE,136,0.0,0.0,86,0.00,,,0.27,Wunderground v.1.15,2013-05-01 03:55:00,
2013-04-30 23:56:00,57.1,53.3,30.09,SE,136,0.0,0.0,87,0.00,,,0.27,Wunderground v.1.15,2013-05-01 03:56:00,
2013-04-30 23:57:00,57.0,53.2,30.09,SE,136,0.0,0.0,87,0.00,,,0.27,Wunderground v.1.15,2013-05-01 03:57:00,
2013-04-30 23:58:00,57.0,53.2,30.09,SE,136,0.0,0.0,87,0.00,,,0.27,Wunderground v.1.15,2013-05-01 03:58:00,